GFSNE_500_spd_000.txt.gz
Wind_Speed
90 91 88 84 81 80 81 80 81 80 76 74 76 78 76 77 75 72 67 86 88 89 84 77 73 74 72 71 68 65 64 61 60 58 57 57 56 56
91 90 88 85 82 79 77 79 80 81 78 77 78 79 78 73 81 78 66 62 80 90 91 83 80 78 75 73 72 70 71 67 63 60 58 58 58 58
93 93 92 89 86 82 79 80 81 80 79 79 82 80 78 74 71 69 83 73 79 74 76 86 83 84 80 77 78 73 71 69 67 64 62 62 61 60
89 86 82 77 78 80 82 82 83 81 79 77 81 81 83 84 70 70 74 82 79 75 76 83 84 85 87 84 78 75 76 74 70 67 65 66 65 66
61 59 56 55 56 56 62 78 83 84 80 77 82 80 84 89 89 76 62 79 83 85 83 73 70 71 82 91 84 75 69 72 69 69 70 72 70 67
42 42 43 46 48 50 53 60 73 85 84 79 81 81 82 84 90 87 66 70 70 70 71 68 68 70 73 75 77 78 70 73 77 74 73 72 70 66
34 38 40 41 40 42 46 54 59 78 87 85 81 82 81 83 81 87 74 63 64 72 69 65 65 68 74 70 64 70 68 64 65 70 79 79 74 73
38 39 41 41 39 39 42 42 52 62 80 89 84 83 81 81 82 79 82 79 70 69 69 74 61 64 75 72 65 63 62 59 65 66 67 65 57 54
37 39 38 37 37 38 38 41 47 54 68 80 91 87 81 83 82 79 77 83 81 63 62 61 55 66 62 62 76 71 53 60 61 57 58 60 56 52
37 37 38 39 40 41 39 39 40 50 60 71 82 87 85 80 86 81 76 79 83 82 66 71 54 50 47 57 50 52 54 53 58 49 54 57 58 56
42 42 46 45 42 43 43 37 33 34 52 65 71 81 86 85 82 85 82 76 80 82 80 72 62 61 57 57 47 52 51 54 56 54 56 50 55 47
45 46 45 43 36 37 41 35 30 27 41 59 66 68 78 85 83 86 84 79 76 77 76 73 71 60 52 41 59 51 54 57 59 50 49 49 44 43
27 29 31 23 20 24 34 36 23 20 29 49 61 63 69 80 85 84 86 81 76 71 70 72 78 83 79 68 55 50 56 57 56 60 58 48 43 48
21 20 16 14 16 23 29 30 26 24 19 35 51 59 64 72 80 83 82 81 76 75 71 73 70 67 65 65 63 57 52 54 57 53 51 46 49 53
12 12 12 15 16 17 19 16 31 29 26 24 37 49 57 63 69 79 80 79 77 73 72 70 70 68 67 69 66 67 58 62 64 54 49 52 55 61
4 8 7 7 8 1 4 1 10 17 24 25 33 40 50 54 58 65 75 76 77 74 71 68 66 66 65 68 70 72 66 70 60 48 57 57 58 60
8 7 6 6 9 2 5 5 5 2 10 21 21 35 42 48 50 54 65 72 75 73 70 67 63 62 62 64 65 66 69 66 63 61 59 58 64 63
9 7 2 5 3 5 9 4 7 6 5 7 17 22 27 36 44 48 54 65 73 72 69 64 61 60 59 59 59 60 59 59 57 61 61 66 69 62
12 9 4 4 5 5 4 1 5 3 13 14 12 16 21 28 34 39 44 54 67 70 67 63 59 58 55 55 52 53 54 58 61 63 66 68 60 55
11 18 20 18 15 8 6 7 5 8 7 7 8 8 13 19 24 29 36 42 49 53 64 62 58 56 52 51 51 51 55 61 61 64 66 57 60 62
18 17 17 18 18 20 18 16 13 8 11 12 12 12 14 19 21 19 22 32 34 40 50 54 51 47 49 51 51 51 56 60 63 59 54 58 61 62
22 24 27 29 29 24 20 24 23 17 9 16 14 15 15 27 29 25 24 30 25 35 39 43 45 46 46 49 52 52 53 51 50 56 62 63 62 64
19 21 22 23 24 25 27 28 26 27 24 18 16 21 25 20 15 19 21 25 28 29 41 39 41 44 50 45 41 44 46 49 55 56 58 60 62 60

GFSNE_500_spd_003.txt.gz
Wind_Speed
66 69 70 69 70 70 70 72 76 78 78 73 77 81 82 84 81 78 74 80 75 75 85 86 84 82 79 73 69 68 66 65 65 63 60 58 53 53
75 77 78 78 79 77 76 76 76 77 81 81 81 84 86 82 82 80 78 81 77 74 82 87 87 88 84 81 73 73 69 66 67 66 63 60 59 55
80 79 80 81 82 82 82 82 83 81 80 75 79 79 81 82 82 81 79 82 81 80 78 91 96 94 90 85 79 77 74 69 70 70 66 64 62 61
80 82 83 82 80 78 76 73 73 78 83 80 77 79 80 81 83 84 89 88 76 78 81 83 94 101 95 92 85 82 79 77 72 70 67 67 65 65
83 81 77 68 63 56 54 53 54 53 59 70 76 81 81 78 83 85 92 90 81 82 76 74 91 102 104 99 92 90 85 83 75 74 71 71 70 68
71 62 54 47 43 41 41 43 46 50 53 55 59 71 80 78 79 83 88 94 90 83 79 71 81 82 91 103 99 95 91 89 83 79 77 76 72 69
41 37 36 36 37 37 38 37 39 43 47 50 53 58 73 79 79 77 81 85 88 88 79 67 70 78 85 83 94 100 96 91 89 84 81 81 77 74
29 30 33 36 39 42 44 43 43 45 43 47 47 54 59 70 77 77 76 77 86 91 79 68 57 63 73 77 78 74 77 83 85 84 84 80 78 80
30 33 37 39 42 43 45 43 43 45 44 46 45 44 54 60 70 76 77 76 81 91 96 77 65 56 62 61 66 71 73 68 68 69 69 78 73 73
37 39 40 41 44 45 43 43 43 44 45 43 42 44 47 53 63 77 80 77 79 85 83 94 65 62 64 53 49 53 59 63 65 64 63 63 67 73
41 44 45 46 48 48 48 49 49 50 51 49 42 36 44 52 58 72 79 80 77 78 78 88 88 69 68 54 51 47 52 63 67 68 66 64 65 64
41 35 36 37 41 47 49 49 49 51 52 53 42 37 41 51 57 66 78 80 77 76 73 76 76 70 64 66 57 54 54 60 64 64 62 61 57 58
29 29 32 35 36 34 28 29 32 39 46 45 39 27 36 49 57 61 69 80 78 74 72 70 75 86 65 64 55 57 53 56 58 53 53 56 58 56
30 29 25 29 22 18 22 26 30 32 34 42 38 34 26 40 51 56 61 73 79 76 72 71 70 74 80 70 67 54 58 58 52 52 58 52 54 53
14 12 12 14 20 23 25 27 26 31 34 39 37 35 27 29 46 55 58 64 76 77 73 72 69 69 75 77 73 67 62 60 54 49 51 49 50 52
11 9 9 11 16 12 7 11 14 16 22 24 35 36 31 31 44 52 51 57 69 75 74 70 71 70 70 78 74 74 71 69 63 62 58 61 52 58
12 12 11 12 11 9 12 18 17 16 16 20 23 29 23 29 37 45 47 48 59 71 73 71 73 73 69 70 72 81 77 73 66 64 68 57 54 53
13 14 12 12 10 9 10 6 6 11 10 9 13 16 17 22 27 35 41 43 47 61 70 71 72 71 70 68 64 66 81 78 71 65 72 65 55 59
15 13 10 10 10 10 8 4 7 4 16 12 1 15 17 21 22 28 32 35 38 47 60 67 68 69 69 68 64 60 61 62 61 63 65 64 68 58
20 21 21 21 18 12 4 5 3 11 13 16 9 6 13 18 20 26 33 34 34 39 49 60 61 64 66 64 61 59 56 59 62 64 64 66 65 62
24 25 23 20 19 17 14 9 6 8 6 5 9 10 7 8 17 20 24 30 34 37 43 54 57 58 57 57 59 57 55 56 55 57 63 64 64 62
22 24 26 29 29 23 22 17 14 20 17 19 14 15 13 15 12 16 22 27 31 33 36 43 51 52 51 53 52 52 54 55 54 53 53 55 58 61
19 21 22 23 25 28 30 26 21 15 14 14 20 22 18 11 9 10 11 15 27 28 31 32 40 47 47 46 47 48 49 50 52 53 55 57 60 64

GFSNE_500_spd_006.txt.gz
Wind_Speed
52 52 53 54 56 58 60 62 66 67 65 64 65 66 67 68 68 69 67 65 63 63 62 62 64 68 75 79 79 74 74 72 68 64 62 62 61 59
54 55 57 60 62 64 66 68 70 72 73 70 70 70 70 72 71 72 74 72 68 67 66 65 64 73 75 79 78 80 79 77 72 69 65 64 64 64
67 69 69 71 71 72 71 72 73 74 77 74 77 77 75 75 77 77 78 76 73 71 70 72 70 70 77 74 83 84 85 82 78 74 70 68 66 66
75 76 74 73 73 74 75 76 76 75 78 76 76 79 82 80 80 83 83 82 81 80 77 73 74 73 76 81 74 86 87 87 83 79 76 73 70 65
76 77 77 76 76 75 73 72 71 71 71 74 73 75 78 83 84 85 89 87 85 82 81 81 78 78 78 73 82 87 92 90 86 84 80 78 74 69
75 73 70 65 62 60 59 57 55 57 58 59 62 67 69 73 78 83 88 93 92 86 84 84 83 83 84 85 79 87 93 93 91 87 73 69 74 74
54 48 42 39 38 37 37 34 37 37 37 37 37 40 49 54 61 65 76 87 94 90 88 87 84 82 88 91 90 83 93 98 93 90 83 71 75 73
31 30 30 30 29 29 31 32 35 36 37 41 40 37 34 38 41 46 57 71 88 91 87 89 92 87 90 92 99 82 87 100 98 93 90 90 84 82
28 29 29 31 33 33 35 36 35 38 38 42 40 42 41 41 43 45 47 56 71 87 85 86 91 101 87 86 83 89 85 92 95 97 93 91 87 88
32 33 34 35 38 39 40 40 41 44 45 43 40 43 43 44 46 47 47 48 50 67 78 80 83 89 93 87 69 70 84 89 92 99 98 94 91 90
35 38 38 38 41 45 44 45 46 46 46 47 45 42 42 42 46 47 44 46 47 55 69 74 72 79 86 98 69 85 73 72 70 84 89 92 97 97
38 41 42 43 42 40 38 34 33 34 39 47 50 50 50 48 46 46 44 46 47 51 54 69 69 71 74 76 80 67 68 74 69 69 75 82 82 89
38 38 37 36 36 35 31 31 32 32 32 34 37 44 52 53 52 49 46 44 49 45 56 67 68 67 73 80 88 59 52 60 63 72 75 74 72 76
29 23 22 23 19 20 20 21 23 25 26 27 29 31 36 44 47 49 45 44 47 45 53 58 66 65 70 78 90 71 55 61 56 58 61 68 68 65
16 18 18 16 17 19 21 23 22 23 22 23 24 31 33 36 45 46 40 40 45 47 47 53 62 63 67 68 72 90 76 63 59 53 53 51 63 66
17 19 18 18 20 20 20 16 15 19 17 20 26 27 32 37 41 41 36 31 43 48 51 49 57 62 64 65 61 70 67 68 56 62 61 56 61 64
19 21 20 18 16 17 16 15 10 10 16 24 32 25 28 31 35 35 31 33 41 44 46 50 50 58 60 65 62 61 75 65 58 61 58 58 57 56
18 17 18 15 13 11 10 9 13 14 19 29 21 11 15 20 23 23 26 33 37 41 41 42 47 52 58 62 65 61 76 75 64 57 58 60 62 57
19 18 17 15 13 7 6 8 16 20 21 27 20 3 10 14 17 19 23 28 34 37 38 38 43 49 55 59 62 62 63 70 67 66 63 59 57 56
21 21 19 16 13 10 9 7 11 14 13 15 16 4 5 11 12 13 17 24 28 33 34 36 39 46 51 54 59 60 59 58 61 63 63 63 61 60
17 21 24 19 18 15 11 13 16 19 13 14 17 17 6 2 10 14 17 18 21 25 30 34 39 42 45 53 56 58 58 57 56 56 57 60 57 49
14 18 22 24 23 20 15 13 15 21 20 16 20 19 18 13 3 4 9 21 24 23 27 32 40 41 43 49 52 55 58 58 56 52 52 50 50 53
12 16 19 21 22 23 24 22 19 16 19 21 26 22 17 10 14 8 3 8 14 20 24 29 35 42 41 43 47 50 54 55 53 53 52 52 52 51

GFSNE_500_spd_009.txt.gz
Wind_Speed
67 67 60 56 54 53 54 58 61 62 63 64 70 74 76 78 79 79 78 76 74 70 69 67 64 65 64 64 59 66 62 68 73 74 72 69 67 63
62 59 57 57 55 55 55 56 57 60 63 62 64 68 74 77 78 79 79 80 79 77 75 74 70 68 69 68 69 65 69 75 65 75 76 75 71 67
61 62 62 62 62 63 64 66 66 67 65 64 66 69 70 72 76 79 81 82 83 82 80 78 76 74 71 71 70 73 60 62 76 76 80 80 77 71
66 69 70 71 72 71 71 71 72 74 75 71 73 72 72 74 75 78 80 82 83 84 84 84 82 79 78 75 73 76 74 55 57 64 81 88 82 77
70 71 73 74 74 74 75 76 76 77 78 78 79 79 79 80 81 83 83 84 86 85 87 86 87 86 83 82 79 77 84 79 75 62 72 87 87 81
71 71 71 70 69 69 70 70 72 74 74 76 77 78 82 85 88 88 88 89 90 92 91 90 90 90 89 87 83 82 80 80 77 84 74 78 84 85
62 57 53 50 49 46 45 44 48 52 57 62 66 69 72 76 82 86 90 90 92 93 96 96 93 91 93 92 89 88 86 84 79 78 82 70 79 87
41 37 32 30 30 30 30 30 32 32 29 29 33 45 53 59 68 74 79 86 90 89 92 95 97 98 98 97 95 92 89 88 83 70 74 79 73 82
26 23 24 25 28 29 30 30 30 31 32 32 28 28 31 33 38 40 51 67 77 82 88 96 99 99 101 101 99 96 93 91 87 84 82 79 82 81
25 28 29 29 32 33 32 33 35 35 34 33 33 37 39 40 41 44 46 44 42 55 70 86 93 102 103 103 101 98 99 94 94 87 82 80 80 73
32 34 35 36 37 39 38 37 37 40 40 39 39 41 43 45 45 47 48 46 41 39 42 46 66 88 102 102 103 101 103 100 98 96 96 81 81 80
31 33 36 38 39 40 41 40 36 33 33 34 35 38 45 47 48 47 47 45 43 45 44 41 43 49 72 93 96 101 101 102 103 99 97 84 80 78
30 30 28 23 20 23 28 31 33 32 31 34 36 38 41 45 51 53 50 49 47 42 43 42 40 43 49 58 73 88 92 96 100 97 98 84 73 83
26 23 23 23 21 22 17 16 18 20 20 21 23 24 27 31 36 43 52 54 52 48 45 43 39 42 43 51 55 71 78 85 93 93 74 80 77 82
21 21 23 24 20 21 19 17 18 16 17 17 19 20 22 28 34 38 38 44 50 52 47 45 39 40 45 39 49 60 67 67 83 81 64 77 79 85
16 19 21 21 19 19 18 16 17 14 16 18 20 22 30 31 34 35 40 36 43 46 45 43 38 40 46 49 46 55 60 63 71 82 62 51 66 81
15 17 20 22 22 13 13 13 13 14 13 17 26 32 37 45 39 35 34 34 38 42 41 39 38 34 36 47 44 52 57 63 66 79 82 73 58 71
17 14 17 23 20 14 8 9 11 16 19 22 26 32 25 12 18 23 29 33 37 38 39 37 43 51 49 47 44 49 55 59 56 61 67 55 55 60
20 17 14 16 16 16 14 15 13 12 14 19 20 12 4 5 8 14 20 26 30 32 34 37 46 48 41 41 44 46 51 54 54 57 59 57 49 55
16 18 12 14 12 12 14 12 10 7 12 19 22 11 7 3 5 10 14 19 23 27 30 35 39 40 42 41 40 42 48 53 53 53 57 58 51 52
11 13 16 16 13 9 10 13 17 20 19 18 20 21 12 6 1 6 9 13 18 22 28 31 34 35 38 41 40 34 42 50 51 54 63 50 48 51
8 10 12 15 17 14 9 10 14 20 24 23 20 20 19 15 6 1 5 7 8 16 22 28 31 31 35 36 39 35 38 47 50 53 56 47 47 43
6 8 9 11 14 15 16 16 17 20 22 25 26 24 17 17 17 11 6 3 12 12 15 20 24 29 34 36 42 39 38 43 46 50 50 47 46 43

GFSNE_500_spd_012.txt.gz
Wind_Speed
68 67 66 67 66 66 67 67 64 58 55 58 60 67 72 78 86 90 90 89 88 85 82 79 76 71 69 66 68 70 67 50 66 59 64 65 71 67
66 66 65 66 68 68 65 62 59 58 55 55 56 60 68 75 82 88 92 92 92 91 88 86 83 78 74 73 70 72 72 65 63 62 62 64 70 70
64 64 63 64 65 65 65 63 61 61 59 59 59 59 62 69 76 82 88 95 94 94 94 91 89 87 84 79 76 76 80 80 61 48 60 60 63 69
62 64 64 67 68 69 70 70 69 68 66 65 64 63 63 65 70 76 82 88 95 97 96 95 95 92 90 87 83 80 81 84 86 64 68 57 62 59
63 64 66 68 69 71 73 74 74 74 73 73 70 72 72 71 70 72 77 81 88 94 99 98 98 98 96 93 90 87 84 82 78 83 69 59 60 57
65 67 68 69 69 70 70 71 72 73 73 75 77 77 79 79 79 78 76 78 81 88 94 98 101 100 100 99 95 92 89 86 82 81 89 74 66 65
60 60 60 60 58 55 54 53 56 58 61 66 68 74 76 81 85 84 83 84 83 84 88 92 97 100 100 101 99 98 95 92 88 86 84 84 77 69
51 43 40 37 35 33 32 33 33 33 31 34 40 50 61 72 78 84 87 88 88 89 89 88 91 95 100 102 102 101 100 98 94 91 89 88 83 76
31 27 26 27 29 30 30 30 29 29 28 29 26 28 31 39 54 68 79 85 89 90 92 93 92 90 92 96 101 104 103 102 100 97 93 94 92 93
25 27 31 32 35 35 33 33 33 32 33 34 35 36 35 36 37 39 53 71 80 85 88 92 95 96 98 98 99 100 103 104 102 101 100 98 97 89
29 34 35 35 36 38 39 39 38 37 37 37 36 37 38 38 39 40 37 36 45 63 75 83 88 92 97 100 102 104 104 104 103 102 104 103 100 97
29 30 32 33 33 31 29 27 26 33 38 38 38 42 41 43 44 44 44 40 40 40 43 47 60 68 82 90 96 105 107 108 107 106 102 104 103 101
27 27 28 28 27 26 24 21 21 24 23 26 29 32 36 38 40 46 49 50 49 46 46 47 45 44 45 49 66 90 103 109 111 112 108 104 103 105
22 20 21 23 25 28 25 21 17 15 15 17 18 22 27 32 37 41 43 47 53 54 53 49 50 51 52 51 45 45 69 99 107 110 112 110 108 105
19 20 19 19 19 19 18 19 17 16 14 15 19 24 28 31 34 35 36 40 46 50 56 56 52 53 54 49 48 47 45 58 83 105 105 109 109 109
19 22 19 20 19 19 12 10 12 16 14 15 17 18 21 26 29 31 33 36 40 41 48 58 59 57 54 50 49 47 48 47 51 60 85 99 103 106
13 13 15 19 21 19 14 10 12 16 16 18 22 28 33 37 39 40 38 38 39 39 43 45 58 58 55 52 46 45 44 39 39 46 48 61 79 96
11 12 14 13 11 13 15 14 14 12 11 13 22 27 23 24 30 38 42 43 45 43 37 41 44 49 51 46 43 42 40 41 41 48 46 48 61 80
11 12 11 9 6 10 14 16 16 17 19 21 24 18 9 9 8 4 14 21 27 34 33 36 39 42 42 43 43 39 36 42 40 55 46 49 50 55
9 11 9 6 3 8 10 14 19 23 22 20 21 21 10 7 4 3 8 13 16 22 28 32 35 38 37 41 43 40 35 37 39 50 46 44 46 51
6 8 10 8 4 4 6 12 16 20 22 23 20 21 20 10 4 1 3 7 12 18 24 29 32 33 38 41 45 41 35 36 36 46 51 43 47 50
2 5 7 9 9 10 10 12 14 17 21 24 23 19 21 20 11 7 0 3 6 13 16 20 24 29 35 45 44 39 34 28 33 43 50 46 39 42
0 2 5 5 7 9 11 12 14 16 19 22 25 24 21 22 21 12 9 3 2 3 12 16 21 25 31 35 36 35 34 29 29 39 45 48 49 43

GFSNE_500_spd_015.txt.gz
Wind_Speed
66 72 78 76 73 74 75 73 72 67 65 62 63 64 67 70 70 77 77 83 86 89 91 83 79 68 67 72 75 81 83 77 66 58 58 59 59 65
77 78 77 75 77 75 72 69 69 69 64 63 60 61 64 65 66 69 75 78 82 84 92 91 89 82 71 74 73 71 73 77 77 66 46 54 58 61
75 77 74 71 70 69 68 68 68 68 65 60 59 57 58 60 61 63 70 74 77 81 85 96 95 92 84 72 78 76 74 74 81 79 63 56 59 58
63 64 65 65 65 67 69 70 72 71 71 66 64 63 61 60 60 62 64 69 74 77 82 87 99 97 95 92 86 85 81 78 76 80 84 73 62 62
59 61 62 63 64 66 68 70 71 72 73 73 70 69 67 66 65 64 64 66 69 73 76 83 91 101 99 99 89 90 87 83 80 80 82 78 64 64
58 60 63 66 67 68 69 69 70 70 71 73 72 74 74 73 72 70 69 69 69 71 73 76 84 92 104 104 101 97 93 90 87 85 82 86 74 66
60 61 62 63 64 64 64 60 58 59 60 64 68 69 70 73 76 77 76 74 75 74 74 73 77 85 92 103 106 102 100 97 93 90 87 85 86 80
55 56 58 57 49 40 33 28 29 31 32 36 40 45 53 63 69 75 79 80 77 77 80 78 77 78 84 91 101 106 104 102 100 97 93 90 87 89
53 52 40 32 31 32 35 36 36 34 34 33 32 31 31 35 46 58 71 77 79 79 82 82 83 78 79 84 91 97 104 104 103 102 101 98 94 90
42 30 26 29 34 39 40 41 41 40 39 39 36 35 34 33 31 32 43 60 69 76 80 82 84 83 84 81 84 89 95 99 105 105 104 104 101 97
26 27 30 34 36 38 39 38 36 38 42 44 41 38 36 39 39 38 35 36 39 51 66 78 82 85 86 86 85 84 87 94 98 104 106 106 107 105
25 29 33 35 35 36 33 29 24 26 26 27 32 39 43 40 41 42 41 37 35 36 39 54 69 82 86 87 89 90 90 89 92 99 103 107 108 108
24 28 31 32 31 30 31 27 24 22 22 24 25 29 36 38 41 44 46 43 42 39 42 38 43 57 76 81 86 90 93 94 93 94 98 103 106 108
23 25 26 26 25 25 25 28 22 19 18 20 23 24 24 28 34 36 38 40 43 46 47 43 39 38 43 54 64 79 88 92 96 97 97 98 102 105
18 18 18 19 15 16 17 14 11 13 16 19 22 19 21 25 26 27 31 36 40 40 44 49 48 46 42 43 45 49 59 73 84 91 98 102 102 103
13 17 13 11 15 20 21 18 12 11 16 20 19 23 24 25 26 28 30 34 35 35 40 44 47 52 51 48 49 51 51 48 50 59 74 91 103 108
12 12 6 7 10 11 13 15 17 16 14 15 17 21 25 29 31 35 35 35 34 35 36 39 41 45 50 55 53 53 55 51 49 47 48 52 69 95
10 7 3 5 8 9 11 16 18 21 20 20 20 22 27 22 18 22 36 44 43 41 39 38 37 39 43 49 54 56 54 52 52 49 50 49 48 56
7 6 3 2 4 5 12 18 19 21 22 23 23 25 25 19 14 10 9 15 33 40 43 40 39 36 37 40 45 54 54 52 52 50 49 47 46 49
4 6 6 4 3 4 10 15 15 18 22 24 25 26 27 19 11 8 8 8 8 12 24 35 38 37 35 36 37 43 48 50 51 50 42 38 42 41
4 4 5 7 5 4 7 7 12 17 21 24 25 26 27 23 16 9 7 7 6 7 12 18 27 31 32 34 39 42 45 47 45 42 35 37 41 41
3 4 4 5 5 5 4 7 9 14 18 21 23 24 27 31 23 15 10 5 6 6 7 12 18 23 27 31 35 37 37 37 37 33 32 39 49 36
1 2 4 5 6 6 8 9 11 13 15 16 19 20 21 24 27 28 21 12 9 8 4 6 9 16 24 32 34 37 37 36 34 33 33 43 50 50

GFSNE_500_spd_018.txt.gz
Wind_Speed
55 60 60 67 71 68 75 80 80 80 77 76 68 65 62 61 63 66 70 72 76 78 80 81 84 91 91 90 89 77 78 78 69 76 78 71 62 54
53 59 70 75 77 79 79 80 84 85 79 71 67 61 59 60 60 63 66 70 74 78 80 80 80 86 91 92 90 89 83 76 77 74 79 76 74 66
56 60 69 75 75 76 77 77 76 75 73 65 64 60 57 58 59 62 65 69 72 76 78 80 78 80 87 90 92 91 87 78 78 79 73 87 72 52
53 56 59 61 62 63 64 65 67 69 71 67 64 64 62 60 59 60 61 62 66 70 75 78 77 76 80 86 90 92 87 79 79 78 77 84 88 76
52 53 55 56 58 62 63 63 64 66 68 69 66 67 67 66 64 63 63 63 63 65 67 70 73 73 77 81 87 91 87 83 77 76 76 77 82 81
49 52 55 56 58 60 63 65 66 67 67 68 67 66 69 70 71 71 70 69 65 66 67 67 69 69 73 78 83 86 96 83 75 76 78 79 77 84
52 53 55 58 60 62 62 62 63 63 64 65 64 60 64 68 70 73 73 72 71 68 69 69 68 68 67 73 77 83 88 97 84 72 73 76 77 77
51 54 55 56 58 58 58 58 53 43 35 34 33 32 32 37 47 62 70 73 71 72 71 70 71 69 67 68 73 79 84 93 101 106 88 76 81 79
52 51 51 52 51 47 38 34 34 36 39 40 39 38 36 36 34 36 45 56 64 67 72 70 71 71 71 68 69 74 79 84 96 106 100 91 88 86
49 48 46 42 36 32 33 37 40 43 45 45 43 41 40 39 38 34 32 33 41 52 63 68 72 72 75 74 71 70 73 79 85 95 105 99 96 90
45 43 37 29 29 35 36 35 34 35 40 40 38 36 36 42 40 38 36 34 28 29 41 57 63 71 74 75 75 73 71 74 79 85 92 102 104 103
38 33 27 27 31 33 33 32 30 29 31 33 29 26 24 25 35 43 40 37 34 34 36 33 42 57 67 73 77 78 77 75 76 79 84 89 101 105
27 23 23 27 29 28 28 28 30 29 23 22 21 20 22 25 28 31 39 42 41 36 40 35 35 37 47 60 71 78 80 80 79 78 80 83 87 94
19 17 21 24 20 18 15 16 17 15 13 14 18 22 25 28 29 28 29 36 40 44 43 39 38 36 33 39 54 68 77 81 82 81 79 79 82 86
11 14 15 12 10 7 13 20 16 12 10 12 16 19 20 23 24 24 25 26 33 37 40 44 45 43 40 36 37 48 61 73 80 82 82 82 81 81
9 9 11 8 4 7 12 14 16 17 15 15 16 18 21 23 23 25 26 27 27 30 35 36 37 40 44 43 40 40 42 50 64 75 80 82 83 83
6 9 9 5 1 6 8 12 15 18 19 20 20 19 19 23 22 20 27 31 30 31 33 32 33 38 38 42 45 44 44 43 44 50 58 68 77 82
4 7 8 6 2 3 7 13 14 17 21 24 24 24 24 20 17 14 13 15 30 36 35 34 35 35 33 37 40 45 46 44 46 45 42 43 49 57
2 3 4 3 3 2 5 12 13 16 20 23 25 28 28 24 19 12 11 9 13 18 34 38 36 31 28 30 33 36 40 45 47 48 48 45 44 43
1 1 5 5 2 1 5 8 10 14 17 21 22 27 31 31 26 19 11 10 7 6 7 23 36 37 34 32 29 28 31 35 42 46 47 48 48 46
1 2 2 5 4 3 3 6 9 13 16 17 18 22 27 30 31 28 20 13 11 8 5 6 15 30 35 34 30 30 28 31 34 40 46 47 47 47
1 1 1 2 2 3 5 7 9 12 14 15 16 19 21 24 26 29 28 20 16 13 5 4 6 11 23 29 27 27 28 29 33 37 42 45 47 46
2 1 2 3 2 3 5 8 10 11 11 13 14 17 19 21 21 22 24 27 22 18 13 5 1 5 12 18 24 29 29 30 32 35 37 38 38 39

GFSNE_500_spd_021.txt.gz
Wind_Speed
69 67 64 57 62 58 64 69 73 68 67 67 69 69 67 70 72 70 68 71 77 81 84 84 83 85 87 89 88 87 88 89 84 78 75 70 77 71
62 56 54 55 60 65 68 71 73 76 74 71 70 69 70 75 78 78 77 74 76 80 82 86 86 86 87 90 90 90 88 91 89 85 75 74 57 72
46 47 49 51 57 61 67 68 74 79 81 77 80 81 78 75 73 71 69 68 68 73 79 81 83 85 87 88 93 92 90 90 93 90 82 75 79 63
47 47 47 49 52 56 60 64 67 70 73 74 67 66 64 63 63 64 64 64 64 66 70 74 79 82 85 87 90 95 90 87 91 97 93 87 73 77
47 48 51 51 52 54 55 56 56 58 61 63 60 61 62 61 61 62 63 63 65 66 67 70 74 78 81 84 86 89 90 83 86 93 96 95 88 75
50 48 46 46 48 51 52 54 55 57 59 62 62 62 64 64 64 65 66 67 67 68 67 67 70 72 76 79 80 82 84 82 81 86 92 96 96 94
44 45 47 49 50 50 50 52 54 57 58 60 60 59 60 62 63 63 65 68 70 71 70 69 69 70 70 72 76 78 79 77 77 80 85 91 96 94
44 46 47 48 50 50 51 53 53 53 54 56 53 47 41 40 39 41 45 50 59 71 74 71 71 70 69 69 69 71 73 74 75 76 80 86 88 93
46 46 47 47 47 48 47 47 48 44 35 33 32 33 34 38 39 39 39 38 37 42 57 69 71 70 71 70 68 67 67 69 72 73 77 81 86 85
47 47 45 44 45 43 42 37 29 32 38 41 40 39 40 41 42 44 44 40 39 39 39 43 57 64 69 71 70 68 67 68 69 71 75 81 88 92
46 44 42 39 38 36 27 25 30 33 36 36 34 31 31 34 37 40 40 44 41 40 37 35 39 46 59 66 70 70 68 67 67 69 73 79 84 94
40 38 35 32 27 23 23 24 24 29 29 29 27 25 25 25 26 27 27 32 42 42 42 38 35 39 44 56 66 70 70 69 68 67 69 74 82 89
29 28 25 21 20 17 16 16 16 18 18 16 16 18 18 18 21 24 27 29 30 32 40 40 37 36 33 40 52 62 69 72 70 68 67 70 75 83
19 17 16 15 12 13 10 3 9 14 13 11 10 12 17 21 24 27 29 31 32 30 34 40 40 36 36 34 35 48 59 68 72 72 70 69 70 73
12 11 10 10 12 8 3 4 9 13 14 14 14 15 16 18 21 23 26 29 26 26 28 33 39 40 38 38 38 35 42 55 66 72 73 72 71 69
8 7 7 5 5 5 1 4 7 11 14 15 16 14 16 20 24 26 27 28 26 23 24 28 32 35 39 39 39 39 34 38 52 65 71 73 73 72
5 2 2 1 5 5 2 5 7 9 13 17 19 20 19 17 17 15 16 16 22 26 24 25 28 31 33 36 38 40 39 35 33 48 60 68 72 74
3 2 1 4 8 8 2 4 6 10 13 15 19 23 25 25 21 15 10 9 8 8 24 26 27 27 29 32 33 36 40 39 37 33 38 51 60 68
3 3 3 6 8 6 3 1 5 8 12 13 16 20 24 28 27 21 13 10 10 11 12 21 29 26 30 30 29 34 33 37 39 38 36 34 39 49
2 5 5 6 6 6 3 1 4 7 11 13 14 18 22 25 28 28 21 14 10 10 10 8 16 28 27 26 28 30 28 31 33 38 40 38 36 36
3 3 4 4 5 3 2 2 3 6 9 10 12 15 19 22 25 27 28 24 20 11 7 7 6 13 26 27 25 23 21 20 24 28 33 37 39 39
3 3 2 2 1 1 1 1 3 5 6 8 10 13 17 20 21 23 25 26 25 21 12 8 6 3 12 23 28 27 25 23 21 20 25 30 36 41
4 3 2 1 1 1 1 2 3 5 7 9 11 12 14 18 18 18 19 22 23 24 21 16 9 4 3 9 18 25 27 25 23 22 25 30 33 37

GFSNE_500_spd_024.txt.gz
Wind_Speed
82 80 77 74 71 71 69 65 69 66 65 66 72 75 73 73 76 75 75 73 73 74 77 79 80 80 82 85 86 87 87 86 84 83 83 81 80 79
66 66 61 53 49 49 54 59 63 69 67 69 70 70 71 72 77 74 74 72 72 73 74 79 81 84 85 86 87 88 89 88 88 86 85 84 83 80
50 48 47 46 47 49 58 61 62 65 67 65 68 70 70 70 72 76 76 78 79 81 80 80 81 82 88 90 89 88 89 90 91 91 89 88 87 85
50 49 47 47 48 48 50 51 56 63 72 76 73 72 72 73 73 75 75 76 78 81 83 83 85 87 87 90 93 92 89 90 90 92 94 91 90 88
48 48 48 49 48 49 50 51 51 53 56 59 56 59 62 64 66 69 72 77 79 77 77 80 78 80 79 82 86 90 94 92 91 91 93 95 94 91
50 49 48 47 46 46 45 44 45 47 50 53 52 51 56 58 60 61 64 66 68 70 71 72 72 73 74 75 77 80 83 90 93 93 92 95 95 95
47 46 46 45 44 44 43 44 45 47 50 53 52 52 54 57 59 60 63 65 66 68 69 70 70 71 72 74 74 75 76 79 86 90 91 93 94 95
47 47 45 43 42 42 42 43 47 48 49 49 48 47 48 52 53 54 56 58 61 65 65 66 71 71 71 72 72 73 73 74 77 82 84 87 91 91
50 50 49 47 46 45 45 46 46 45 44 44 44 41 38 37 38 37 36 37 38 42 49 54 61 67 71 72 73 72 72 73 74 76 80 81 85 87
52 51 49 47 46 44 42 41 39 38 39 36 32 33 36 39 41 42 43 45 44 44 45 42 43 42 49 66 74 73 72 73 72 72 74 77 81 83
44 44 45 44 41 39 37 33 30 25 27 32 34 34 33 36 37 38 37 41 44 46 47 48 46 43 43 39 50 68 72 72 71 71 71 73 76 80
36 35 35 33 31 30 26 20 19 23 22 24 25 24 24 28 31 32 34 32 33 36 41 45 47 46 44 42 38 45 61 70 72 71 71 70 72 76
27 27 25 22 21 18 14 15 12 11 10 11 12 11 11 14 20 22 24 25 26 26 31 34 37 46 45 44 40 33 47 61 69 71 71 69 69 73
19 18 15 13 11 11 10 8 11 7 5 7 9 11 12 14 18 23 28 30 32 32 35 36 34 34 40 41 42 38 33 50 63 69 71 69 68 70
8 8 8 8 9 7 8 9 9 2 4 7 10 12 14 17 21 26 30 32 33 33 34 34 31 34 35 38 39 39 34 33 50 64 69 71 69 68
6 8 8 9 9 10 9 7 4 2 5 9 12 14 15 15 16 17 22 26 28 32 33 31 31 30 31 35 37 37 35 31 34 48 61 68 70 69
6 6 4 4 7 10 11 5 4 4 5 7 11 14 17 19 20 21 17 13 13 16 22 28 27 25 27 30 32 35 35 33 30 32 46 58 66 70
3 3 1 6 8 10 9 6 5 4 4 6 9 12 16 20 24 25 22 15 10 9 8 13 24 23 22 25 29 31 34 35 33 32 30 39 53 63
1 3 3 8 10 9 8 7 5 4 3 4 7 11 14 18 22 25 26 23 14 10 10 12 15 27 25 24 26 28 30 33 36 35 34 30 32 48
1 3 4 7 9 9 9 8 5 3 2 2 5 9 12 15 19 22 25 27 23 14 11 11 11 14 26 25 26 25 25 29 30 35 36 35 31 30
2 3 4 5 7 8 8 7 5 4 2 0 4 8 10 13 16 19 21 23 26 23 15 12 10 8 15 24 22 24 26 24 26 28 32 36 35 33
2 2 3 4 4 5 5 5 4 4 3 2 5 7 10 12 13 16 18 19 21 24 23 18 13 9 4 18 21 19 20 22 24 26 28 30 34 36
6 5 4 4 4 4 4 5 5 5 3 3 5 7 8 9 11 13 15 16 17 19 22 24 21 14 8 1 16 22 21 20 19 18 20 25 30 34

GFSNE_500_spd_027.txt.gz
Wind_Speed
74 73 69 67 66 65 64 66 71 73 71 73 76 75 79 81 82 80 76 78 79 78 78 78 78 78 78 77 78 79 79 81 82 82 82 83 83 81
55 55 52 48 48 49 45 47 50 51 49 53 60 63 70 76 80 75 77 73 76 75 75 74 76 77 79 80 81 80 80 82 83 84 83 83 85 85
48 49 50 50 51 52 52 50 50 59 57 55 59 61 59 64 70 74 76 75 77 78 77 78 76 77 78 80 81 82 82 81 83 85 86 86 85 87
47 49 50 51 48 47 48 47 47 51 53 61 62 56 63 69 68 69 68 73 73 75 77 75 80 74 75 80 82 82 83 85 85 84 87 88 89 88
48 48 49 50 49 48 45 45 46 47 49 52 52 55 57 59 65 71 74 68 68 73 78 81 80 83 78 81 82 83 84 84 86 86 86 87 88 90
48 48 48 47 47 46 46 45 45 45 46 46 45 46 50 55 59 61 63 67 70 74 79 79 81 82 80 78 82 84 86 87 88 89 91 90 88 90
53 52 51 50 48 47 44 43 44 44 44 43 40 41 44 48 52 55 58 61 62 65 67 68 70 74 78 81 82 88 89 89 91 93 93 92 93 90
51 52 53 53 52 50 48 45 43 41 41 41 41 43 47 50 51 53 55 57 59 63 65 65 69 69 70 70 70 70 71 71 73 75 80 87 93 94
48 47 47 48 50 51 49 46 45 44 43 44 44 45 45 45 46 47 48 51 53 56 60 61 65 67 68 71 71 73 72 71 70 71 72 74 79 86
45 44 43 42 43 44 44 44 42 41 41 42 40 38 37 36 36 37 37 39 40 40 43 46 50 57 64 67 69 70 71 71 71 71 70 71 71 75
41 40 40 38 37 36 34 35 35 34 35 32 30 27 29 31 34 38 37 42 41 42 46 48 49 47 46 45 50 58 62 68 72 72 71 71 71 73
36 36 35 33 29 27 26 25 25 26 25 23 21 20 21 23 25 28 31 33 34 35 38 43 42 47 49 50 48 46 44 44 51 67 73 73 73 74
30 29 29 25 20 19 17 17 18 19 17 13 12 13 13 14 16 17 19 24 27 27 31 39 37 40 42 45 49 51 48 43 39 38 54 71 74 74
22 21 16 11 9 11 13 14 14 13 10 9 11 11 10 10 13 16 20 24 28 31 35 38 35 34 34 34 35 44 50 48 42 40 40 58 73 76
14 7 2 2 4 6 8 10 12 10 9 7 4 3 4 8 9 11 14 18 24 31 36 38 34 33 36 34 35 34 41 48 43 41 39 43 65 75
5 3 2 3 5 5 6 10 10 10 7 5 6 7 9 10 11 13 16 17 18 18 20 24 29 32 32 31 32 36 36 40 44 39 38 37 46 67
4 2 1 2 2 6 11 10 9 8 9 6 5 7 8 10 13 15 18 21 20 18 14 15 18 23 27 28 29 32 32 34 41 38 36 31 35 48
6 3 4 2 5 9 9 8 8 7 8 4 3 6 7 9 12 16 20 22 22 20 17 15 14 15 24 26 27 27 28 32 39 37 33 31 26 33
6 3 3 2 7 8 8 7 6 5 6 4 1 2 5 8 11 15 18 20 23 22 17 15 15 19 17 24 24 23 26 29 34 35 31 32 29 26
5 2 1 2 5 8 8 7 7 7 7 5 3 1 5 7 10 12 15 17 20 23 23 18 15 16 15 17 21 21 21 24 28 31 31 31 30 28
4 3 3 4 5 7 8 9 9 9 9 7 4 3 5 7 8 10 12 14 17 20 23 25 20 15 15 11 17 18 19 19 23 26 26 30 31 30
5 4 4 5 6 6 7 8 9 9 10 8 6 5 6 7 7 8 10 12 13 15 18 22 24 19 16 6 9 13 14 18 19 20 25 25 28 32
12 8 7 6 5 6 7 7 8 9 10 10 8 7 7 7 8 9 10 11 11 12 14 16 18 21 17 11 4 12 14 13 15 19 21 23 25 27

GFSNE_500_spd_030.txt.gz
Wind_Speed
62 61 58 58 57 55 50 43 44 45 43 45 58 67 73 77 73 85 77 88 85 81 74 75 74 74 74 74 76 76 74 74 75 76 76 77 81 81
48 47 46 47 47 45 44 43 43 48 44 45 43 44 52 62 70 71 79 84 81 82 80 78 76 77 77 75 76 77 78 77 76 77 78 78 79 81
47 47 47 48 48 47 47 47 48 47 48 45 49 49 47 51 59 69 70 72 75 76 78 76 77 76 76 76 75 76 76 77 79 78 77 78 79 80
48 48 48 48 47 48 47 47 47 47 45 42 45 47 53 52 50 57 56 59 63 67 69 72 71 71 71 74 74 73 75 76 78 79 77 78 79 81
52 53 53 52 51 50 49 47 45 44 44 42 39 42 49 52 53 56 57 57 65 64 59 62 64 65 68 70 73 74 73 73 74 75 77 76 76 79
54 54 54 54 54 53 52 50 47 43 42 41 40 39 42 46 53 55 55 60 63 63 64 67 69 66 63 67 69 74 78 79 78 78 79 78 76 77
57 54 51 50 51 52 52 51 50 47 43 40 37 39 41 44 47 50 54 57 57 58 60 61 63 68 69 66 68 74 76 78 79 81 80 80 80 78
53 50 48 46 45 47 49 47 49 49 46 41 38 36 38 40 41 44 46 49 51 55 57 58 61 60 62 67 71 76 77 78 81 81 82 83 82 81
48 46 43 42 42 43 43 44 43 45 46 43 39 38 37 37 40 42 44 47 49 51 54 55 59 60 61 62 62 64 66 69 72 77 83 84 86 86
44 43 41 38 38 39 37 36 37 36 38 40 39 37 38 39 41 42 44 46 47 48 52 51 54 55 59 59 60 61 62 63 66 70 73 78 82 87
39 39 38 36 34 33 31 28 28 29 30 32 32 32 33 33 35 33 33 36 35 37 41 44 45 48 51 53 56 58 61 64 66 65 66 67 69 71
38 36 34 32 29 27 25 20 19 23 23 23 24 24 22 22 24 25 26 28 29 31 38 45 44 47 47 48 48 47 46 48 57 65 67 69 69 68
33 31 29 25 20 16 12 10 13 16 17 16 14 14 15 15 15 15 15 15 16 18 28 32 32 38 42 42 45 49 51 51 48 47 51 59 66 70
26 22 17 12 8 4 2 6 10 12 12 11 11 10 11 13 13 11 10 11 14 19 26 30 30 33 36 37 38 40 44 47 51 51 49 48 50 55
19 15 13 11 9 6 0 5 9 11 12 10 8 8 7 4 2 3 5 6 8 11 15 17 21 31 37 39 40 38 36 38 42 48 50 50 48 45
14 13 11 9 8 6 3 3 9 11 9 8 8 10 10 8 7 6 8 9 11 14 16 16 14 15 21 30 36 35 38 37 38 37 44 49 50 48
15 13 11 10 6 4 3 6 8 8 9 12 11 10 8 7 6 5 7 10 13 16 18 17 17 18 20 19 26 33 34 35 36 37 34 42 50 49
14 11 10 8 5 5 6 6 5 7 12 11 9 8 7 5 4 5 8 10 14 17 19 20 18 17 20 20 20 25 30 33 33 35 37 37 44 46
11 9 8 6 2 2 3 2 2 4 10 8 7 6 4 2 2 4 7 9 11 14 18 20 22 20 20 19 17 22 24 25 27 29 33 35 36 38
10 8 6 4 2 2 3 3 2 3 5 7 7 6 3 2 2 4 5 7 9 12 16 19 23 24 23 20 13 11 16 17 20 23 25 28 30 33
9 8 6 5 5 5 6 6 7 6 7 9 9 8 6 5 5 5 6 7 8 10 14 17 20 24 24 21 9 5 8 11 13 15 18 18 23 29
12 10 8 7 6 7 7 7 8 9 9 10 11 11 9 9 8 7 8 8 9 10 12 14 16 19 23 22 11 2 4 7 11 12 12 14 17 22
16 15 12 9 8 7 6 7 9 9 10 11 11 12 11 9 10 10 10 10 10 11 12 12 14 15 17 19 16 4 10 7 8 10 13 14 14 17

GFSNE_500_spd_033.txt.gz
Wind_Speed
70 65 60 56 53 52 51 49 51 47 46 43 46 48 55 65 71 80 83 85 77 79 73 71 78 75 75 76 75 75 75 76 76 76 75 73 73 76
54 50 50 50 48 48 50 50 49 47 39 38 43 40 44 44 56 67 77 86 92 90 80 76 74 74 76 81 76 76 76 76 77 77 76 76 76 76
45 46 46 47 48 48 49 50 51 50 44 38 39 46 46 46 44 52 62 65 69 73 78 81 79 77 77 75 77 77 78 78 76 78 79 77 78 78
47 48 50 51 51 52 52 52 52 52 49 43 39 40 44 46 49 53 51 66 68 64 77 87 85 78 77 71 72 73 76 79 78 78 79 81 80 81
51 53 53 54 55 56 56 55 54 53 50 48 41 40 42 47 49 50 53 54 62 69 75 71 69 74 69 75 73 76 76 74 78 80 80 80 81 83
52 54 57 58 57 56 55 53 52 51 50 49 46 42 41 44 48 50 52 54 57 57 59 62 64 69 68 69 69 69 71 72 71 76 77 81 80 81
55 57 55 52 50 51 52 49 47 47 47 48 46 46 41 41 46 48 49 51 55 57 57 59 60 58 58 61 63 57 57 62 70 72 73 77 79 81
54 47 45 45 46 47 46 44 44 43 42 43 44 45 43 41 40 42 46 47 49 52 56 56 57 60 62 66 64 60 61 63 63 65 70 71 76 78
44 39 38 41 43 43 43 40 36 37 37 38 40 41 42 42 40 36 38 41 42 46 51 51 54 56 58 59 60 60 63 65 64 67 67 71 72 76
43 42 43 42 43 40 36 34 33 32 33 33 35 36 37 38 38 37 34 34 36 39 45 45 50 52 55 56 57 57 58 62 66 70 73 72 72 73
43 44 42 39 37 35 30 28 26 26 28 28 28 29 30 32 34 35 35 37 38 41 46 48 50 52 55 56 58 59 60 60 61 64 69 74 78 79
37 36 37 34 29 26 22 21 19 22 22 21 21 22 24 26 28 29 31 29 29 31 38 37 37 40 42 44 49 53 55 58 60 63 64 66 71 75
29 28 25 21 17 14 11 10 10 13 13 15 16 18 19 20 20 18 19 19 21 21 27 24 27 32 35 37 42 45 47 49 51 55 59 63 66 68
22 21 21 20 17 13 8 3 3 7 11 13 14 14 14 14 13 13 14 15 16 17 16 17 21 24 26 30 34 40 43 46 50 52 53 53 57 63
19 20 20 18 17 13 8 2 2 6 9 11 12 11 11 10 10 9 7 4 2 2 4 6 8 10 12 17 28 38 41 41 42 45 49 53 56 54
19 21 18 18 13 8 6 3 2 5 10 12 10 9 9 11 12 11 8 6 5 4 5 7 8 10 13 18 19 22 34 44 45 43 42 42 46 53
17 18 16 14 10 8 8 8 5 6 8 9 11 12 14 15 13 10 7 5 4 4 6 8 11 13 16 18 22 25 26 31 42 42 40 40 41 44
14 15 12 11 8 7 7 8 7 4 9 11 12 12 13 11 9 7 5 3 1 3 6 9 13 17 20 23 23 23 25 25 28 33 33 37 39 37
10 13 11 8 6 4 4 4 4 5 8 8 9 10 10 8 6 4 3 2 2 3 6 8 12 17 22 27 27 20 16 15 15 18 24 28 33 37
9 10 10 8 5 4 4 3 1 1 4 7 8 9 8 7 6 5 4 4 5 6 7 9 12 16 21 26 29 17 5 4 8 11 15 20 25 30
11 10 10 9 7 7 6 5 5 5 5 6 9 10 10 8 8 8 8 8 8 8 9 9 11 14 18 23 26 15 2 2 5 8 12 15 19 21
12 13 12 11 9 8 7 7 7 7 8 9 10 12 12 13 12 11 10 10 10 10 11 11 12 13 15 18 21 17 3 5 6 7 8 10 14 16
14 13 16 15 13 11 9 8 7 8 10 10 12 13 13 14 14 13 12 12 13 13 13 13 13 13 14 14 16 16 11 10 10 10 10 11 11 14

GFSNE_500_spd_036.txt.gz
Wind_Speed
74 71 68 67 67 65 62 59 57 54 51 45 48 52 51 52 56 63 70 74 84 85 90 80 67 70 66 67 71 70 70 74 76 79 80 78 76 77
64 62 60 58 56 53 52 52 53 53 48 48 44 45 48 47 46 50 55 65 74 81 87 82 67 69 62 60 65 74 75 76 75 76 80 80 80 78
58 55 51 48 48 49 50 52 52 54 52 48 47 46 45 47 48 47 49 54 64 76 87 93 91 85 74 68 64 68 70 68 78 77 76 78 81 80
51 48 47 47 49 51 53 54 54 55 56 53 50 50 49 47 48 49 53 51 52 57 65 86 90 90 89 68 74 74 77 72 76 78 76 75 78 81
47 47 48 51 52 54 56 57 58 58 59 57 53 53 52 50 49 50 51 56 54 49 55 72 67 78 76 82 83 81 81 80 79 79 79 79 78 80
47 49 51 53 56 57 55 52 51 51 52 52 52 51 52 52 51 50 51 52 60 55 55 62 63 69 64 64 64 68 70 81 84 84 79 81 82 82
49 51 54 55 54 52 49 42 41 42 45 46 47 49 47 48 50 51 49 51 53 55 55 56 57 71 73 63 69 71 76 77 82 87 81 84 82 82
50 53 52 50 48 47 45 46 46 44 42 42 42 44 44 45 47 49 47 48 49 52 54 54 54 51 63 70 64 69 72 72 74 80 89 91 88 85
50 50 48 45 44 44 45 46 45 43 41 38 37 37 40 42 42 45 47 45 45 49 50 49 51 53 55 60 58 59 61 59 70 72 75 84 86 87
49 47 44 42 41 40 39 37 37 37 36 34 32 33 36 36 36 41 44 43 40 40 47 45 48 49 53 57 62 62 60 62 61 62 63 66 69 70
44 41 40 34 31 31 31 30 30 32 30 28 27 28 29 29 31 35 39 40 39 38 39 40 44 46 48 50 54 56 58 62 65 68 69 69 69 71
35 34 30 28 27 26 24 22 21 22 22 22 21 20 22 24 26 29 34 36 37 36 39 36 40 42 45 48 50 52 54 55 56 59 64 66 71 72
30 25 27 29 27 25 20 17 15 13 12 11 11 14 18 20 21 23 26 28 31 34 38 35 37 38 41 46 50 54 58 59 61 62 63 63 64 66
23 22 26 26 26 24 18 13 11 8 3 4 8 11 14 15 16 17 19 20 21 24 24 22 22 23 24 29 37 42 46 48 53 56 61 65 67 68
20 22 24 24 22 17 13 10 8 6 1 6 9 11 12 13 13 14 15 15 14 13 11 9 9 8 9 14 21 26 32 39 46 50 54 56 58 63
19 20 22 20 16 13 12 10 7 4 1 5 8 11 12 12 11 10 10 11 10 9 7 6 5 4 1 2 6 12 17 24 33 45 50 51 54 57
18 17 18 16 13 11 11 12 10 5 2 5 7 9 10 11 12 13 13 12 10 8 6 4 3 2 3 7 12 16 21 24 32 39 38 48 49 50
16 14 14 13 11 10 10 10 10 5 4 7 8 9 10 12 13 12 11 10 8 6 4 3 1 4 7 11 17 23 27 24 23 31 33 34 43 46
15 12 12 12 9 8 8 8 7 4 4 3 3 6 9 10 9 9 9 8 7 6 4 4 5 7 10 13 19 24 26 19 8 8 12 18 26 33
15 13 11 10 9 8 7 6 5 3 0 1 2 4 6 7 7 7 7 7 6 5 6 7 7 9 11 14 18 23 22 13 6 2 5 10 15 19
17 14 14 12 10 9 9 8 7 6 4 5 6 7 8 9 8 8 9 8 8 8 8 9 10 10 12 14 17 20 17 8 6 5 5 7 12 16
19 16 15 16 14 11 10 9 9 9 8 8 9 10 11 12 13 13 12 12 11 11 10 11 12 12 12 13 15 16 18 10 8 8 8 7 9 12
20 18 17 17 19 17 14 12 10 10 10 11 12 13 14 15 15 15 16 15 14 13 13 13 14 13 14 15 15 14 16 15 11 12 11 11 11 12

GFSNE_500_spd_039.txt.gz
Wind_Speed
75 71 72 73 71 68 68 67 65 61 57 51 50 51 52 54 55 56 60 68 74 77 81 86 86 80 80 65 73 76 79 79 82 80 80 83 83 83
74 71 67 67 62 59 58 55 55 54 51 49 46 48 50 50 51 51 50 50 53 59 65 73 85 89 94 82 71 67 66 70 79 81 82 83 84 84
62 55 54 53 51 51 51 52 54 54 54 49 49 50 52 53 52 52 49 48 47 48 54 62 72 85 92 95 79 71 65 68 69 72 79 84 87 86
49 43 43 44 46 49 51 52 54 55 57 55 52 52 53 53 54 53 52 49 47 46 47 54 66 78 84 92 95 85 63 72 74 72 71 78 84 87
41 42 43 46 48 50 52 53 55 57 59 59 55 54 54 55 56 56 55 52 49 48 46 48 50 61 80 87 95 96 85 72 65 66 70 76 79 81
42 45 47 49 51 53 55 55 54 54 53 52 50 47 48 49 52 54 55 53 50 49 47 52 49 51 56 72 88 91 78 80 75 75 68 69 75 79
47 49 51 54 53 52 53 51 51 50 48 47 44 43 43 45 47 50 52 52 50 51 50 48 53 52 51 50 63 82 90 86 78 75 72 71 76 80
48 52 52 50 51 48 47 46 46 47 46 47 48 48 47 46 47 48 48 49 49 51 51 50 48 52 53 53 53 59 75 85 80 80 85 77 80 82
51 47 48 48 44 41 39 40 40 42 43 43 42 43 43 44 44 43 43 43 45 50 49 47 48 48 56 53 53 54 62 65 71 69 72 84 82 81
45 46 46 40 36 34 35 35 37 38 36 34 33 34 36 36 36 36 36 37 40 45 48 44 45 44 48 52 51 51 57 64 67 68 71 69 73 82
43 45 40 35 34 35 34 34 33 35 33 26 25 25 26 28 29 29 30 32 35 40 43 39 40 38 40 43 47 50 54 50 57 72 75 76 71 79
40 37 35 31 34 35 35 33 29 29 28 22 17 16 17 20 22 22 25 27 31 35 38 33 35 33 34 40 42 43 45 50 55 57 61 73 74 72
37 30 30 30 32 33 31 28 24 23 22 16 10 8 11 14 15 16 20 23 26 31 31 32 34 32 32 36 39 41 44 47 49 53 58 61 64 67
34 27 25 28 29 29 26 24 21 18 15 11 5 1 4 7 9 12 16 19 23 26 26 28 31 32 34 37 41 41 43 44 46 48 52 57 60 63
33 23 21 25 25 23 21 21 18 15 12 8 4 4 7 10 12 15 16 16 18 20 21 22 24 24 25 28 30 31 34 40 44 48 54 57 59 61
32 24 21 22 21 18 18 19 18 13 12 8 4 3 6 9 11 12 13 13 14 14 15 14 12 12 12 12 8 6 8 13 18 27 39 50 56 60
31 22 19 19 18 16 16 17 17 14 10 7 4 1 3 6 8 10 11 12 12 12 12 13 12 11 9 6 2 1 4 9 14 20 31 42 48 53
30 22 18 16 16 15 14 14 14 11 7 7 6 5 6 9 10 11 13 14 14 13 12 11 9 8 5 2 1 5 8 12 13 17 22 34 46 49
28 22 17 16 14 13 13 12 11 9 4 4 5 5 6 7 9 10 10 11 11 10 9 8 6 5 3 4 5 8 11 14 16 17 16 13 15 23
28 24 17 16 15 12 11 11 9 8 6 3 2 1 2 3 4 5 6 7 7 7 7 6 5 4 4 6 7 8 11 15 14 12 10 10 8 6
28 26 21 17 17 16 13 11 10 9 8 6 3 3 3 4 4 4 5 6 7 6 6 6 7 7 7 9 9 9 10 13 12 9 9 10 10 9
28 27 24 20 18 18 17 14 12 10 10 10 9 9 9 9 9 9 8 8 9 10 10 10 10 10 9 10 10 10 10 11 12 11 11 11 10 9
32 28 25 22 20 19 20 20 17 14 12 11 12 12 13 13 13 14 14 13 13 14 14 13 12 12 12 12 12 11 12 11 12 12 12 12 14 12

GFSNE_500_spd_042.txt.gz
Wind_Speed
78 70 68 61 59 63 59 56 56 55 51 48 48 49 51 53 53 53 53 55 58 65 72 78 78 80 83 81 81 81 77 88 79 83 73 81 84 84
58 60 58 60 63 49 45 44 45 48 46 42 41 43 45 47 48 49 49 47 46 47 50 57 62 68 78 83 84 84 83 75 75 79 80 79 80 84
53 58 63 59 44 41 41 43 44 49 49 42 45 45 46 49 50 50 52 51 48 47 45 45 48 55 66 76 84 84 86 84 74 78 75 80 81 82
53 57 43 41 43 46 47 47 48 51 53 50 48 50 50 52 52 52 53 53 52 50 47 45 47 48 58 72 80 90 91 91 81 80 69 70 75 80
51 42 42 46 48 48 49 51 51 51 53 53 51 51 52 53 54 54 55 55 55 53 50 47 47 49 49 65 79 87 90 92 91 86 72 73 73 78
42 45 48 49 51 52 48 48 50 50 50 51 50 49 49 49 51 50 51 52 52 53 54 51 48 49 49 50 64 79 86 92 98 89 77 75 70 69
45 48 52 53 50 47 48 46 43 43 43 44 44 46 46 46 45 46 44 44 43 48 51 52 50 49 48 46 48 60 73 86 97 102 103 76 67 74
46 50 51 45 45 47 42 39 37 39 40 41 39 39 40 42 44 44 44 42 40 42 46 49 50 49 48 47 46 47 48 67 86 94 86 87 81 72
48 49 43 43 45 38 34 36 39 41 41 42 40 38 36 35 38 41 44 45 42 41 42 45 48 48 48 46 47 48 51 49 58 77 85 81 89 75
49 44 41 43 39 32 33 37 39 40 40 39 36 34 31 29 31 33 36 38 37 36 39 40 46 47 47 45 44 49 48 46 49 53 67 79 78 83
45 40 41 39 34 32 34 36 37 36 35 33 30 27 24 21 24 27 28 28 26 30 33 35 41 44 43 41 43 44 48 47 48 47 51 61 78 84
40 37 39 33 29 31 33 34 34 33 30 27 25 20 16 15 16 16 18 17 19 23 28 30 36 37 38 36 37 38 41 46 48 47 45 48 59 67
36 33 34 29 26 28 30 30 32 29 26 21 20 14 9 8 8 9 10 12 16 22 22 25 30 32 31 30 31 31 37 39 42 47 48 49 50 58
35 32 31 24 23 26 26 28 30 27 22 19 17 14 7 3 2 6 9 12 15 15 17 22 24 27 27 28 27 26 29 36 38 41 44 46 52 51
34 32 30 22 20 23 23 25 26 25 19 17 15 12 8 5 5 8 10 12 13 14 16 19 22 24 26 28 29 27 28 30 34 38 41 43 44 46
32 31 30 21 19 21 20 22 23 22 19 15 13 11 8 5 5 7 9 10 12 13 14 16 18 21 23 25 25 24 27 30 35 38 41 42 44 46
31 30 30 24 19 18 18 18 20 19 16 14 11 7 4 2 3 6 8 9 9 10 11 12 13 14 15 14 12 11 12 14 17 20 25 34 44 50
32 29 28 24 19 17 17 15 17 16 14 11 9 8 5 2 3 6 8 10 11 12 13 14 15 15 14 13 11 9 7 5 6 9 12 17 24 37
35 30 27 24 19 17 16 15 14 14 12 9 6 6 7 7 8 9 11 14 16 17 17 16 15 13 11 9 6 5 4 3 2 2 2 2 5 7
36 33 28 25 21 18 16 15 13 12 12 9 5 3 2 4 6 7 9 11 12 13 12 11 10 9 9 7 6 5 4 2 1 2 4 5 7 9
36 34 31 27 23 19 17 17 16 13 11 10 7 5 2 2 4 5 7 8 9 10 10 10 9 8 7 6 6 5 4 4 3 3 4 6 7 8
34 35 34 30 25 22 18 16 18 17 14 11 10 9 9 8 7 6 6 7 9 10 10 10 10 9 8 8 8 7 7 7 6 6 6 7 8 10
31 34 35 33 28 22 21 18 16 19 19 16 13 11 12 13 13 12 13 12 12 12 13 13 13 12 12 12 11 10 10 10 10 10 10 10 10 10

GFSNE_500_spd_045.txt.gz
Wind_Speed
84 73 63 55 50 50 52 55 47 40 34 38 38 38 43 48 49 51 52 52 52 55 58 62 69 77 83 88 92 90 85 79 82 87 60 74 76 84
66 59 48 44 50 49 39 40 43 44 35 40 39 39 40 43 45 46 45 45 45 45 45 48 53 59 67 74 80 85 86 80 84 86 91 77 78 83
55 45 41 44 45 40 42 47 48 49 47 44 44 44 45 45 46 48 47 47 48 45 43 42 44 48 54 62 70 78 81 82 87 87 87 89 76 74
39 36 37 39 40 45 47 49 51 53 51 48 43 44 45 47 50 51 50 49 50 48 47 45 45 46 47 52 65 71 79 83 85 84 82 80 87 90
38 39 39 42 45 47 51 51 48 47 48 50 46 47 46 46 47 50 51 53 53 52 50 49 47 47 48 47 54 70 77 82 82 88 86 77 75 86
38 40 43 45 48 51 48 46 47 47 45 42 38 38 39 38 40 44 47 50 51 51 52 52 51 50 49 49 48 57 71 80 82 83 91 96 85 80
41 44 46 48 51 48 46 46 45 40 36 38 40 40 40 40 40 40 41 44 44 47 49 49 51 52 51 51 51 52 58 67 79 80 85 92 91 85
42 45 46 47 47 44 44 43 37 36 39 42 40 39 39 40 40 40 40 38 39 41 44 44 45 48 52 53 53 52 53 55 67 86 84 85 90 87
43 44 45 45 43 42 41 34 34 39 39 39 36 34 32 34 35 37 37 33 36 38 38 36 37 40 48 52 54 52 50 50 53 73 86 85 88 90
44 44 44 42 39 41 32 30 34 35 36 37 34 31 30 30 32 31 28 27 29 33 37 36 37 37 42 47 52 51 49 47 45 53 69 95 90 92
44 43 42 37 38 35 27 29 30 32 36 35 33 29 28 26 23 19 20 20 22 26 30 33 37 38 38 43 49 50 48 46 42 44 52 59 81 94
42 41 38 34 35 29 24 27 26 31 33 32 29 27 25 18 13 12 13 14 19 21 26 28 35 35 35 40 46 47 46 44 42 43 46 46 54 71
39 38 33 31 32 25 23 24 25 29 31 27 24 22 20 13 8 6 7 9 13 17 17 24 28 29 31 34 41 42 41 41 39 43 44 46 45 50
37 35 31 30 29 22 21 23 24 27 28 25 21 19 17 13 8 2 3 6 8 11 16 20 22 23 25 29 34 35 35 33 36 38 43 45 43 44
36 35 31 29 27 21 19 21 22 25 25 24 19 16 15 11 7 4 3 6 10 12 15 16 16 18 22 25 27 27 28 29 30 34 38 41 45 45
36 35 32 30 27 20 18 19 19 22 22 22 20 16 12 10 8 4 4 6 10 12 13 14 16 18 20 22 22 24 26 27 27 31 36 38 39 42
34 36 34 30 29 24 17 18 17 18 19 19 19 17 12 7 5 3 3 6 8 11 13 14 15 17 18 20 21 24 26 27 29 30 31 36 38 39
32 35 35 31 26 24 19 16 17 15 16 15 15 14 11 7 2 3 4 5 6 8 10 12 13 15 15 16 16 17 18 21 23 26 30 34 36 38
30 32 35 32 28 24 20 16 15 16 15 14 12 11 9 6 3 2 4 7 9 11 13 14 15 17 17 16 13 11 11 12 14 16 18 19 22 25
28 30 32 33 30 25 22 18 14 14 14 13 11 8 7 4 3 4 7 10 12 15 17 18 18 17 16 14 13 11 11 12 12 13 13 14 15 14
27 28 30 32 32 28 23 19 16 15 14 13 11 8 6 5 2 3 6 9 12 14 15 15 15 13 12 11 10 10 10 11 11 11 10 9 8 7
25 26 28 29 32 31 27 21 18 15 16 16 14 10 9 9 8 6 7 9 10 11 12 13 13 13 12 11 11 10 10 10 10 10 9 9 8 7
27 26 26 28 29 31 30 25 20 18 15 17 18 16 13 12 13 13 13 12 12 14 14 15 15 15 15 14 13 12 12 12 12 12 12 11 11 10

GFSNE_500_spd_048.txt.gz
Wind_Speed
93 82 70 62 57 52 48 49 46 37 35 37 40 42 45 46 45 45 46 49 52 53 58 63 70 83 97 101 101 103 102 99 97 92 88 84 75 72
75 60 52 49 46 43 43 43 43 45 47 44 45 46 47 49 50 48 47 47 47 48 49 51 54 60 67 80 91 97 101 101 98 95 88 80 83 81
52 46 46 45 45 44 44 46 47 47 49 45 47 46 45 46 48 50 50 50 48 48 49 48 48 51 56 61 68 77 88 98 97 95 93 85 79 83
44 43 42 42 42 44 47 46 48 48 50 48 41 45 46 47 48 50 51 51 50 50 50 47 49 48 49 53 58 62 68 76 86 88 90 87 88 83
40 41 43 44 43 45 47 48 48 48 45 47 44 45 42 41 40 41 44 46 48 51 50 51 51 49 49 49 50 54 60 67 74 81 83 83 86 85
40 42 45 45 45 47 47 48 48 44 44 44 38 37 40 43 44 44 42 42 42 44 48 50 52 51 50 49 50 50 53 62 71 78 80 82 85 85
40 44 47 46 48 48 47 47 43 43 40 35 36 40 41 43 44 43 43 43 42 42 41 45 51 53 53 51 50 52 51 53 63 72 73 67 79 76
40 44 46 47 46 45 45 42 41 38 33 36 37 37 40 40 40 41 40 39 39 39 41 40 46 49 51 54 52 51 52 52 54 60 68 79 72 73
41 44 44 45 44 44 41 38 37 31 34 34 35 38 37 37 37 36 36 36 35 36 40 37 42 43 47 49 51 52 53 52 53 54 59 70 82 68
41 42 43 43 42 40 36 36 29 29 32 34 36 37 35 34 37 32 28 30 31 29 30 31 36 38 40 42 45 51 54 52 53 53 54 58 78 80
39 40 41 41 40 36 34 31 25 28 29 33 35 34 32 30 30 23 21 20 18 18 22 25 30 33 35 35 38 45 53 54 52 52 52 53 64 90
37 37 38 37 35 33 33 26 23 26 27 31 33 31 29 26 23 17 15 13 13 14 18 21 27 32 34 33 34 40 49 54 52 51 50 50 51 67
34 34 36 35 33 31 31 24 22 24 26 29 29 28 26 23 19 14 10 9 9 13 16 20 25 30 33 34 32 36 44 51 53 49 47 47 47 54
32 33 34 33 32 29 27 22 21 23 24 26 26 26 22 20 18 14 9 7 6 7 10 17 22 26 29 30 31 35 42 46 49 46 44 43 42 49
31 31 33 34 31 30 27 22 19 22 23 24 24 24 21 17 15 13 10 6 3 1 6 11 14 16 19 22 26 30 36 41 42 40 39 38 41 42
29 30 32 33 32 29 26 22 18 19 20 22 22 23 21 15 13 11 8 6 3 2 5 7 10 14 17 19 22 26 30 33 34 32 35 36 35 41
28 29 30 32 33 30 27 23 18 17 18 18 19 20 20 16 10 7 6 3 3 3 6 9 11 13 15 19 23 25 27 28 30 31 30 31 33 37
27 28 28 30 32 31 28 24 20 17 16 17 17 17 18 16 12 7 5 4 3 3 5 8 11 13 15 17 20 22 24 26 28 28 29 30 31 34
25 26 26 28 29 30 29 25 21 18 16 16 15 14 14 15 13 8 4 3 5 6 8 10 12 14 15 16 18 19 21 24 26 27 28 30 30 32
26 25 25 26 27 28 29 27 22 19 16 15 14 13 12 12 11 8 5 1 2 5 7 10 12 14 14 15 15 15 16 17 18 19 21 25 28 30
26 25 25 26 25 26 27 29 26 21 18 15 14 13 12 10 9 7 4 1 3 6 8 12 13 14 14 12 11 11 11 12 13 14 15 17 18 18
27 26 26 26 25 25 26 27 28 25 19 17 16 15 14 11 10 9 6 6 6 7 9 11 13 14 13 12 11 11 11 12 13 14 16 17 17 18
27 27 27 27 25 26 26 25 26 27 24 18 16 16 17 16 14 12 12 11 11 11 12 14 15 15 15 14 14 13 13 13 14 15 16 16 16 17

GFSNE_500_spd_051.txt.gz
Wind_Speed
92 94 89 80 73 60 54 54 54 51 47 45 45 47 49 51 54 55 53 50 48 49 50 48 51 61 70 85 99 106 105 104 105 105 102 98 95 93
91 83 75 66 55 50 49 49 50 51 50 48 45 46 47 49 53 55 53 51 49 48 51 51 47 47 52 62 74 89 101 103 102 103 103 100 96 93
80 74 64 52 48 46 47 49 50 50 52 49 44 45 48 47 48 49 49 50 48 48 48 49 51 46 45 49 56 64 76 90 98 100 101 100 97 94
73 63 49 43 44 46 49 50 51 50 51 48 43 45 45 44 47 48 47 48 48 48 49 50 49 49 49 48 48 52 59 68 78 91 97 97 96 93
59 46 40 42 43 46 50 51 50 50 49 49 44 41 43 41 39 41 42 44 44 43 42 45 48 50 50 48 48 49 51 55 61 69 82 92 93 91
45 38 39 41 43 48 50 49 49 48 48 46 41 40 36 37 41 42 43 45 46 46 44 44 43 45 49 51 50 50 50 52 54 59 66 75 82 87
37 38 38 41 45 48 49 48 49 47 44 40 39 33 36 38 41 44 45 44 42 42 43 43 44 43 43 49 52 51 51 50 50 53 58 65 72 76
36 36 38 44 47 46 44 45 46 43 38 38 31 34 35 39 42 43 42 41 38 37 40 38 41 42 42 43 51 51 50 51 49 48 53 59 67 68
35 36 39 45 44 43 44 42 41 38 38 31 31 34 36 39 41 40 39 38 37 34 36 33 37 39 41 39 46 49 50 51 50 48 48 54 61 69
34 36 41 43 41 42 42 40 38 37 33 29 31 33 36 37 37 38 36 33 29 28 28 29 33 37 38 37 41 47 52 52 51 49 48 50 56 65
34 37 39 40 40 42 40 38 36 33 27 28 30 32 33 35 33 33 32 28 22 20 20 21 22 24 26 29 35 40 47 51 51 49 49 49 51 58
34 37 36 36 37 39 38 35 33 30 24 27 29 31 32 31 30 29 26 22 19 16 17 14 15 16 18 23 29 35 43 47 50 50 49 50 50 51
31 34 35 35 36 38 37 33 30 27 24 25 26 28 29 29 26 26 22 17 14 12 13 12 13 14 17 23 28 31 36 41 46 50 50 50 49 49
30 32 32 33 34 36 36 33 30 27 22 23 25 26 27 27 23 22 18 14 10 8 8 10 12 14 17 23 25 27 30 34 40 46 49 49 49 48
29 30 31 31 32 35 35 33 30 27 22 21 23 25 25 24 21 19 16 13 10 7 5 4 7 10 14 19 24 27 29 31 34 40 45 47 46 45
29 28 29 29 30 32 33 31 29 26 22 20 21 23 22 22 21 16 14 11 9 8 6 3 1 7 12 17 20 23 26 29 31 35 39 41 43 42
28 27 27 27 28 31 32 33 30 26 23 19 19 20 20 20 19 16 12 9 7 6 6 3 2 4 7 10 14 17 19 21 24 28 31 33 35 37
27 26 27 27 28 30 31 31 30 28 24 20 17 17 19 18 18 16 12 9 8 5 3 1 1 4 7 8 11 15 18 20 21 23 26 28 30 33
27 27 27 28 28 29 29 30 30 28 25 21 18 16 16 17 15 15 13 8 6 6 5 5 5 5 8 11 12 13 15 17 20 23 26 26 26 28
28 27 27 28 28 28 28 28 28 28 27 23 19 16 15 15 14 13 12 9 6 3 4 6 7 9 9 11 12 14 16 18 20 22 24 25 27 27
25 26 27 27 28 28 27 27 28 28 28 27 21 17 15 14 13 12 11 9 7 4 1 3 7 9 10 12 12 13 15 17 20 23 26 27 27 27
28 27 27 27 28 29 28 27 28 27 27 27 25 19 17 15 14 12 10 9 7 4 2 1 5 8 9 10 10 10 11 11 12 15 18 20 20 21
30 29 28 27 28 29 29 29 28 27 25 25 25 23 18 16 16 15 13 10 9 7 6 6 6 7 8 8 8 8 10 11 12 13 14 14 15 15

GFSNE_500_spd_054.txt.gz
Wind_Speed
89 88 89 90 86 79 73 65 58 52 45 45 46 48 49 51 53 55 53 51 50 50 49 49 51 55 54 54 66 79 90 108 116 117 113 111 105 100
86 89 88 82 77 70 59 50 47 49 50 50 48 49 50 51 51 51 50 50 50 50 51 51 51 53 54 51 50 55 69 82 95 110 114 111 108 105
88 88 80 74 68 56 47 43 45 49 52 51 51 49 48 47 47 49 48 47 47 46 47 50 52 51 51 51 51 50 51 64 75 85 98 107 107 105
86 79 71 65 57 44 41 42 45 48 54 54 49 45 45 46 45 46 45 44 44 43 43 44 49 51 53 54 51 48 50 51 61 70 76 90 99 102
78 70 65 55 42 39 41 42 46 52 53 50 48 45 45 43 42 41 40 39 39 40 41 41 43 45 46 48 51 52 50 47 51 58 64 71 81 91
69 63 53 42 37 38 39 44 49 48 47 47 44 42 39 40 38 36 36 38 40 42 43 44 44 44 45 44 44 48 50 48 48 50 53 60 68 76
62 53 42 36 35 36 42 47 46 46 45 44 42 39 38 34 33 34 36 40 39 42 44 42 41 41 41 43 43 43 46 49 46 46 47 50 59 68
53 43 36 35 35 38 44 43 42 42 41 41 39 37 30 31 32 36 39 41 38 39 43 37 41 38 39 40 42 41 40 46 47 46 44 44 48 60
44 37 33 34 35 40 43 41 42 43 43 41 37 32 28 31 34 36 38 39 38 37 38 33 35 32 35 36 38 38 37 38 47 47 45 42 43 49
38 33 32 34 35 40 40 39 41 42 41 38 34 28 29 31 35 35 36 34 35 33 33 25 27 25 29 31 34 35 36 37 45 48 46 43 41 44
35 32 32 33 36 39 38 37 39 38 37 36 30 26 29 31 33 34 34 32 29 27 26 22 20 18 19 23 29 31 33 35 42 46 45 44 42 41
33 31 31 32 35 37 36 36 37 36 34 32 28 26 28 29 31 33 29 29 26 21 22 16 15 13 10 11 13 21 28 32 39 45 45 44 43 41
30 31 30 30 33 34 34 36 37 35 33 30 26 24 26 28 29 30 26 25 22 18 16 13 11 8 5 7 9 11 19 26 34 41 43 43 43 43
28 29 29 30 31 32 32 34 37 37 34 30 26 23 24 26 27 27 22 22 19 15 13 11 8 6 4 8 9 10 15 21 28 36 41 43 43 44
27 27 28 29 29 30 30 31 35 37 35 30 26 22 21 23 24 24 20 18 18 15 11 8 5 4 7 11 11 10 12 18 24 30 36 42 43 43
27 26 28 28 28 28 29 30 32 33 34 31 26 21 20 21 21 22 20 15 16 13 11 9 5 1 6 10 12 13 14 16 19 24 30 37 42 44
26 27 28 28 28 28 28 29 31 32 32 32 26 22 18 18 19 19 19 15 12 11 9 8 6 3 2 7 9 12 14 17 19 21 25 30 37 42
27 27 27 28 28 28 28 28 29 30 30 30 29 23 18 16 17 17 17 15 11 9 8 5 3 2 4 6 7 8 8 13 15 19 23 26 31 37
28 27 26 27 28 27 27 27 27 27 29 30 30 25 20 16 15 16 15 14 11 8 6 5 3 2 4 6 8 8 9 8 13 17 20 24 27 32
28 28 27 27 26 27 27 27 27 27 27 30 29 28 21 17 14 13 13 12 10 7 4 3 5 4 4 5 7 8 9 10 12 15 19 22 25 28
28 28 28 28 27 27 27 27 27 27 27 28 28 26 25 18 14 12 11 10 9 6 5 3 3 5 6 7 7 8 10 12 14 15 17 20 22 24
30 30 29 28 28 28 28 28 28 26 26 25 25 24 24 21 16 13 11 10 8 6 4 3 2 1 3 5 7 9 10 12 15 17 19 21 23 24
31 30 29 29 29 28 27 27 26 25 24 23 22 23 23 22 19 14 12 12 9 7 5 3 2 1 1 3 4 6 7 8 10 13 17 19 21 25

GFSNE_500_spd_057.txt.gz
Wind_Speed
86 88 90 87 89 88 84 79 72 66 56 44 39 39 43 46 50 53 53 53 54 54 52 52 52 52 52 54 57 59 62 75 88 101 109 112 110 108
86 85 85 88 86 80 74 66 60 55 46 39 37 41 45 49 52 52 50 49 51 50 47 48 49 50 51 52 54 55 56 59 66 78 91 105 112 111
86 84 87 85 78 70 63 56 47 42 41 37 40 44 49 49 46 46 46 47 48 48 47 47 47 48 50 51 51 52 53 55 57 64 71 82 96 108
84 86 84 76 67 60 55 45 38 39 40 42 44 45 44 45 46 45 43 43 43 43 43 43 44 46 50 51 53 54 54 53 55 57 61 67 76 90
85 83 76 66 58 53 44 38 37 38 42 47 43 42 42 43 44 44 42 40 39 37 37 40 41 43 46 48 50 52 54 56 56 56 56 58 62 70
82 75 66 57 52 42 35 35 35 38 44 44 42 42 41 41 42 40 37 32 32 35 37 40 42 43 45 46 48 49 50 50 54 58 55 55 56 59
75 66 57 52 43 35 33 33 36 40 43 41 41 41 40 39 38 34 30 29 32 37 39 39 41 41 44 44 44 45 46 49 49 51 57 55 53 52
63 55 52 45 37 32 32 33 37 41 39 38 38 37 36 35 30 28 29 31 32 40 39 36 41 39 39 42 44 44 43 45 46 47 51 53 51 48
54 52 46 38 33 32 32 34 37 41 39 40 39 37 34 31 27 27 30 33 35 37 35 34 38 35 35 34 37 40 40 41 42 44 47 51 50 46
51 47 39 33 30 30 31 33 37 38 37 39 39 36 34 29 26 27 30 31 35 35 35 28 31 28 28 28 28 31 33 36 39 41 44 47 48 44
46 42 35 30 29 28 30 32 35 36 36 37 37 34 31 27 26 27 30 32 32 33 32 24 26 23 22 20 21 22 27 30 34 38 39 42 45 42
40 37 33 29 28 28 29 31 33 33 33 35 35 34 30 25 25 27 29 32 30 29 27 21 22 17 13 12 11 14 19 25 30 33 35 39 43 42
35 33 30 27 27 27 28 30 31 30 32 33 33 31 28 24 24 26 28 30 27 26 22 18 16 11 6 6 3 2 6 14 24 28 30 37 43 41
32 30 29 26 25 26 27 28 29 29 32 33 34 32 27 23 22 24 26 28 24 22 21 18 12 7 6 6 11 5 5 5 13 22 28 37 42 41
30 28 28 27 25 26 27 27 27 29 31 32 32 33 27 22 20 22 23 25 22 16 17 14 12 6 5 7 10 7 3 8 11 18 27 36 40 41
28 28 27 26 25 25 25 26 27 28 29 30 30 30 27 23 19 19 20 22 22 15 14 13 10 5 5 9 13 13 8 5 9 15 24 33 38 40
25 26 28 27 25 25 25 26 27 27 28 28 28 29 29 23 18 16 18 19 20 16 12 11 9 6 3 8 10 10 6 5 8 13 19 28 36 39
25 26 26 26 24 24 25 26 26 27 26 26 27 29 28 25 20 15 16 17 17 16 11 10 7 6 3 3 7 8 4 6 9 13 17 21 29 37
28 27 26 25 24 24 24 25 25 26 26 26 26 28 27 26 20 15 13 14 15 14 10 7 8 6 4 4 9 8 6 7 9 14 18 21 25 31
28 27 27 26 24 24 24 24 26 26 25 24 24 24 24 24 22 16 12 12 12 13 10 8 7 5 3 6 6 6 5 6 10 13 18 22 25 29
30 27 27 27 26 25 25 24 25 26 25 23 23 21 21 22 22 18 13 10 9 10 9 7 5 5 4 4 4 4 5 7 8 11 15 19 23 27
32 30 28 27 26 26 25 24 24 25 23 23 22 20 19 20 20 20 15 11 9 8 7 5 3 1 1 3 5 6 6 8 9 11 14 17 20 23
32 34 32 30 28 26 26 24 25 25 23 22 21 20 19 19 19 18 18 13 10 9 7 6 3 2 2 3 3 4 6 9 12 14 16 18 20 22

GFSNE_500_spd_060.txt.gz
Wind_Speed
75 78 81 85 88 92 91 91 87 86 76 68 62 57 50 45 43 43 45 48 51 53 55 55 54 53 55 56 57 58 60 64 71 82 89 97 106 107
82 83 84 87 89 91 89 84 81 75 65 57 51 44 40 40 42 45 49 50 49 49 50 51 50 48 48 49 51 52 55 59 63 66 73 76 89 101
83 84 88 91 91 87 82 76 69 62 56 48 39 37 39 42 45 45 45 45 45 45 47 48 48 48 48 49 50 50 50 52 56 59 63 69 71 83
85 89 91 91 87 80 73 65 58 54 49 38 34 38 41 45 43 42 42 44 44 44 45 46 46 46 47 46 48 49 50 51 52 55 60 63 67 67
90 90 90 81 74 70 62 54 51 46 39 37 36 41 43 41 39 40 41 42 42 42 41 41 41 41 43 45 47 48 49 51 53 53 55 59 62 64
89 82 77 70 65 58 53 48 42 36 36 37 39 42 42 41 41 40 38 40 38 36 35 35 36 39 41 44 45 47 48 50 52 54 56 57 58 60
83 77 70 63 57 52 47 41 35 34 35 36 38 41 40 40 39 38 38 35 31 35 32 36 39 40 42 43 45 46 48 49 50 52 54 54 58 60
75 68 62 56 51 47 42 36 33 34 34 35 39 37 37 37 35 34 33 29 27 35 33 36 38 38 39 40 43 43 45 46 47 49 50 51 53 58
66 59 55 51 47 43 38 33 33 33 33 35 36 36 35 36 33 31 30 28 29 32 31 34 35 36 38 37 39 40 42 43 44 46 48 50 51 52
58 53 50 46 42 39 35 31 31 32 33 35 35 35 36 35 32 29 26 26 29 33 31 29 34 33 34 36 36 35 36 37 39 43 45 46 48 49
53 49 46 42 38 36 32 29 29 30 32 34 34 35 35 34 31 27 25 26 28 31 31 30 32 29 31 34 32 30 29 30 32 35 38 42 44 45
49 46 42 38 36 33 29 27 27 29 30 31 33 35 35 34 31 27 22 24 27 30 31 28 30 27 23 28 22 20 17 20 23 28 32 36 39 40
46 43 39 34 33 31 28 27 27 28 29 29 30 32 34 33 31 28 23 23 26 29 30 25 25 25 20 17 15 9 6 9 13 21 26 31 35 35
43 41 37 32 31 29 28 26 26 28 29 29 29 30 32 32 31 28 22 23 24 27 28 24 23 21 15 9 8 3 3 2 11 13 21 26 30 33
41 39 36 32 29 27 27 27 27 27 27 28 28 29 30 30 30 27 23 22 23 24 24 21 20 18 12 9 10 9 11 7 12 8 18 23 27 33
39 37 34 33 30 27 26 26 26 26 26 26 27 28 28 30 29 26 21 20 22 23 21 18 18 16 11 10 13 12 11 11 6 10 14 22 28 36
37 36 34 33 30 28 27 26 25 26 26 25 26 27 28 28 29 27 21 18 20 22 20 15 15 14 9 9 11 12 14 13 12 9 12 19 28 36
36 35 34 32 29 28 27 26 25 25 25 25 26 26 26 26 27 27 22 17 18 19 19 16 15 13 8 7 9 11 11 10 7 8 11 16 26 33
36 34 32 31 30 27 27 25 25 25 25 25 25 25 24 24 23 23 22 18 16 16 17 16 15 13 8 5 7 10 9 6 5 8 13 18 25 32
35 34 31 30 29 27 27 27 26 26 24 24 23 23 22 22 21 21 21 18 15 14 15 14 12 8 7 7 7 8 6 4 6 9 14 19 23 30
34 33 31 29 29 27 26 26 25 26 24 23 22 21 20 20 19 19 19 18 15 13 13 12 11 8 6 7 8 7 6 6 6 8 12 18 23 26
34 33 32 30 29 29 28 27 27 26 25 24 22 20 20 19 18 18 18 17 14 13 12 9 8 6 5 6 8 8 7 6 6 7 9 13 18 24
33 32 31 30 30 31 30 29 27 27 26 24 22 21 20 19 18 17 17 16 15 12 12 10 7 7 5 3 4 4 6 7 8 8 9 11 14 17

GFSNE_500_spd_063.txt.gz
Wind_Speed
73 74 76 80 83 85 86 87 91 93 92 87 80 76 73 68 64 59 53 50 47 46 48 50 52 52 53 52 52 53 55 58 61 66 76 83 89 92
78 81 84 86 87 87 89 88 87 85 82 75 69 65 60 56 54 48 45 44 47 50 51 51 49 49 48 47 47 48 50 53 57 58 59 65 74 81
84 87 88 86 87 91 88 85 80 75 71 65 59 54 52 48 44 43 44 46 48 46 45 44 44 46 47 47 48 48 48 50 51 53 57 58 60 68
86 87 89 94 90 87 85 79 72 67 61 55 50 47 42 41 42 43 47 47 44 43 42 43 45 47 48 47 46 48 49 49 49 50 51 54 58 63
88 92 91 91 88 84 76 67 62 58 55 50 44 39 38 40 42 46 46 42 41 40 40 42 44 42 41 40 41 42 44 47 48 48 49 49 53 58
88 89 87 85 79 73 64 60 56 53 50 45 39 36 38 40 43 45 42 42 41 40 40 40 37 35 35 35 37 38 41 43 45 46 48 49 51 55
85 82 78 73 69 64 57 54 52 48 44 39 36 35 37 39 43 42 40 38 37 37 38 36 35 34 35 37 39 41 42 43 45 46 47 50 52 53
76 69 69 68 64 58 53 50 48 44 40 36 34 35 36 40 39 38 38 36 34 37 36 33 33 34 38 39 42 41 40 41 43 46 47 48 50 53
66 66 68 66 60 54 50 47 44 40 37 33 32 34 35 36 34 36 38 36 34 34 32 29 35 35 38 40 39 37 37 38 39 42 44 46 47 50
66 68 68 64 56 50 46 43 40 38 35 32 31 32 33 33 35 36 36 33 33 33 30 27 34 34 36 35 34 33 34 35 38 40 43 45 46 47
69 71 68 60 52 47 44 40 37 37 34 32 31 31 31 32 35 35 34 31 29 31 27 27 32 32 31 33 31 30 31 32 33 35 37 39 41 45
71 72 65 55 47 44 41 37 36 36 33 32 31 31 31 32 35 36 34 30 29 27 25 27 32 32 25 29 29 26 25 22 20 23 27 31 32 37
73 69 60 51 44 41 39 35 34 33 32 31 30 30 31 32 33 36 36 31 26 26 23 26 30 30 29 23 26 20 16 4 16 18 16 19 24 29
72 63 54 47 42 40 38 34 33 32 31 31 30 30 30 30 31 33 35 34 28 23 26 25 27 26 24 23 19 15 7 3 8 15 15 13 16 22
66 56 49 44 41 39 37 33 32 32 29 30 30 30 30 29 29 31 34 33 29 23 24 26 26 24 23 21 17 13 10 12 10 14 14 13 15 19
57 50 45 42 40 38 36 32 31 31 29 28 28 28 29 28 29 30 31 31 29 24 21 24 24 22 21 20 15 14 13 14 11 12 20 13 17 20
51 46 43 40 38 37 35 32 32 30 28 28 27 26 27 26 27 28 29 28 26 22 22 21 22 20 18 17 14 13 14 15 16 21 23 11 14 20
44 41 39 38 36 35 33 33 32 31 29 26 26 26 26 26 26 26 26 25 25 22 20 20 19 16 14 14 12 10 12 14 14 16 10 6 10 17
44 40 36 35 34 34 32 31 32 32 29 28 26 25 25 25 24 24 24 24 24 20 18 19 17 14 11 10 8 7 8 10 7 7 6 4 9 16
46 39 34 32 32 32 31 29 30 30 29 28 27 25 23 24 22 22 22 23 22 20 17 17 16 13 11 9 8 7 6 7 7 7 6 6 12 19
41 37 34 31 30 31 29 27 27 27 27 26 25 24 23 22 21 21 21 21 19 19 17 15 14 13 11 10 9 8 7 7 8 6 7 8 14 21
36 35 33 32 31 30 28 27 27 27 27 27 26 24 23 21 20 20 19 19 18 17 17 14 13 12 10 8 9 9 10 9 7 6 6 9 14 18
35 33 32 31 30 29 28 27 27 28 28 27 25 24 22 21 19 18 18 17 17 16 16 14 13 11 9 8 7 8 8 7 7 6 6 8 11 15

GFSNE_500_spd_066.txt.gz
Wind_Speed
73 75 76 80 82 85 87 89 92 94 93 90 87 81 75 70 67 63 61 58 55 52 48 47 46 48 50 49 47 46 45 46 48 52 60 69 74 80
76 78 81 83 85 86 89 92 92 90 89 81 75 69 63 60 57 55 53 49 45 43 44 46 48 50 50 48 46 43 42 42 43 46 50 54 60 66
79 81 83 85 87 91 89 87 88 84 78 72 66 59 55 53 52 49 44 41 41 43 46 47 48 45 43 43 43 42 42 43 44 45 46 48 52 54
80 82 84 88 87 84 84 83 76 74 70 64 56 53 51 50 46 42 39 41 42 44 46 44 43 42 41 40 40 42 43 45 46 48 50 50 49 52
81 83 86 83 79 80 77 71 71 70 65 58 52 49 47 45 40 39 39 41 45 46 41 38 38 38 37 38 38 39 41 44 44 45 46 47 50 50
83 86 78 76 78 75 68 71 71 67 61 53 48 46 43 40 37 37 37 41 45 45 42 41 37 35 35 34 34 36 36 36 36 39 41 43 45 49
83 77 75 75 78 70 68 71 70 63 56 49 45 42 39 36 36 36 37 40 41 42 40 39 35 34 33 32 32 34 35 37 39 40 42 42 43 47
76 74 74 75 73 67 70 71 67 59 51 46 42 39 36 34 34 34 37 38 37 38 38 35 34 31 30 31 33 34 36 39 40 41 41 41 42 44
75 74 73 74 67 69 72 70 62 54 47 43 39 38 34 33 32 32 35 37 39 41 37 29 31 31 29 32 34 35 37 39 38 38 39 40 40 41
73 74 73 68 69 72 72 65 56 48 45 41 37 36 33 31 32 32 33 34 38 40 37 26 28 28 30 32 33 34 34 34 35 36 38 40 41 42
74 74 69 70 74 75 68 58 50 44 42 38 35 34 33 31 31 31 32 33 35 38 37 26 26 26 29 32 33 31 30 30 30 32 35 38 42 44
71 70 73 75 76 71 60 52 45 42 39 36 34 33 32 30 31 31 32 33 35 32 33 25 27 24 26 32 33 27 25 24 24 25 24 25 29 34
70 73 77 77 71 63 54 47 43 39 37 34 32 33 32 30 30 30 32 34 33 34 33 23 25 27 26 26 28 26 21 20 18 18 15 18 19 20
75 76 74 68 62 57 49 43 41 37 35 32 31 32 31 30 29 30 32 33 34 32 31 29 22 26 28 27 24 23 19 15 14 16 18 17 16 15
78 72 63 56 53 49 45 41 39 35 32 31 31 31 30 28 28 29 31 31 32 31 28 26 22 25 26 23 19 22 18 14 11 13 14 17 21 16
68 61 51 44 45 42 40 38 37 34 31 28 30 30 29 28 28 27 28 29 29 32 31 23 21 23 25 22 18 20 17 16 14 14 17 24 24 14
61 54 47 43 42 41 40 36 34 33 30 28 29 28 27 26 27 26 26 27 27 26 29 28 18 22 22 21 17 17 16 14 15 17 16 23 17 10
52 47 55 50 45 44 40 36 32 31 29 27 27 27 26 25 25 25 25 25 25 24 25 25 18 19 21 18 14 14 11 10 11 14 16 18 12 6
43 48 52 48 47 47 40 34 30 28 28 27 28 28 26 26 25 25 24 23 23 22 23 23 17 17 17 17 13 10 6 5 6 7 11 11 7 5
41 45 44 41 43 40 34 32 28 27 27 26 26 26 25 24 24 23 22 21 20 21 22 20 16 15 15 15 13 10 7 6 7 9 9 8 4 6
36 36 36 36 35 33 31 29 27 26 26 25 24 23 23 22 23 22 21 19 19 19 20 19 16 13 13 12 12 10 9 8 7 7 8 6 2 8
35 33 32 31 31 30 29 27 25 24 25 25 24 23 23 22 23 22 20 18 17 17 18 17 16 13 11 11 11 11 10 9 8 6 6 4 4 8
37 36 35 32 30 28 28 26 24 23 23 24 25 25 23 23 22 21 19 17 16 15 16 15 15 13 11 11 10 9 8 7 8 6 5 3 6 11

GFSNE_500_spd_069.txt.gz
Wind_Speed
68 70 72 75 79 81 80 81 84 87 85 85 85 79 75 72 70 67 61 56 54 53 51 50 48 46 46 45 46 46 48 49 50 51 54 59 64 66
70 72 75 78 79 79 80 83 85 85 84 83 75 73 73 71 66 59 52 49 48 46 43 41 41 41 43 45 47 48 49 48 46 45 45 49 54 58
73 75 77 78 78 80 82 83 82 81 81 76 68 72 72 67 61 53 48 45 43 38 38 39 40 42 45 47 47 46 44 42 40 38 38 41 44 48
76 76 76 78 80 81 80 78 77 77 79 67 69 71 69 62 55 48 45 42 39 37 38 39 41 43 42 40 40 40 38 37 37 38 39 41 42 43
76 77 78 80 81 79 78 75 75 76 70 67 70 70 63 56 50 45 42 39 37 37 38 40 39 36 35 35 34 35 35 35 36 38 39 40 42 44
77 79 81 81 79 77 76 74 75 71 66 69 72 67 58 51 46 41 38 36 35 37 39 39 38 36 36 33 31 32 33 33 34 35 36 37 39 42
79 81 81 81 78 76 74 73 72 67 69 72 70 62 52 47 42 39 36 33 34 37 38 40 39 36 32 28 28 29 31 32 34 35 36 37 39 40
81 83 84 82 78 75 74 71 68 70 72 72 65 55 48 43 40 36 34 33 32 35 36 37 37 36 30 28 27 27 29 30 33 35 37 40 42 42
84 86 84 80 77 74 70 68 71 73 73 69 58 49 43 41 36 34 33 33 33 36 36 32 35 35 31 28 27 26 27 30 34 36 39 40 42 43
86 86 82 78 73 72 71 72 74 73 69 62 52 45 41 38 34 33 32 31 33 35 36 32 34 32 31 28 26 25 27 32 35 36 37 39 40 41
88 84 79 75 74 76 76 76 74 68 63 54 47 41 38 35 32 31 31 31 30 32 36 33 35 30 30 27 25 24 28 32 33 32 32 34 37 39
88 80 76 79 79 79 77 71 65 60 53 46 41 38 35 33 30 30 30 30 29 30 33 31 34 29 22 28 26 24 27 29 27 28 28 29 31 34
85 78 77 81 78 71 66 61 57 51 44 39 36 35 34 31 28 28 28 28 28 29 31 29 30 29 21 21 28 27 28 25 25 24 25 24 26 29
82 80 76 73 68 62 57 52 47 44 39 36 32 32 33 29 26 27 27 27 28 27 29 29 27 29 21 20 22 28 27 23 22 21 22 24 23 21
81 77 71 64 61 57 51 42 39 41 39 34 30 30 31 27 25 26 26 27 28 28 27 27 26 26 22 20 22 25 22 25 18 21 21 21 19 22
76 71 64 61 55 49 44 47 43 40 40 34 30 29 29 27 25 25 25 26 27 28 27 25 24 22 22 20 21 23 21 20 20 17 20 19 20 22
71 64 60 51 44 38 45 48 51 46 39 35 30 28 26 25 25 24 23 24 24 25 26 26 25 21 20 20 21 20 19 19 15 14 15 16 19 21
66 58 51 44 37 37 43 49 48 41 37 33 29 27 23 23 23 23 23 24 24 24 22 23 23 23 19 18 19 18 15 14 12 12 12 13 17 16
56 48 43 40 37 38 41 41 38 35 32 29 27 26 23 22 23 23 23 23 22 22 20 20 20 21 18 16 16 15 13 12 11 8 9 12 13 9
45 42 40 38 37 35 36 35 34 31 29 26 25 24 22 22 22 22 21 21 21 21 19 18 18 18 15 14 14 12 11 10 11 10 9 9 8 4
40 41 40 39 38 35 34 32 31 29 26 24 24 24 23 21 22 21 20 20 20 20 18 17 17 16 14 12 12 11 10 10 9 8 7 6 4 3
43 43 42 39 40 38 35 32 30 27 25 23 23 23 21 21 22 21 20 19 20 19 17 16 15 14 14 11 10 10 9 8 7 7 6 4 2 7
45 46 46 44 39 40 37 34 29 28 25 22 22 22 25 22 21 21 20 19 19 18 16 15 14 13 12 11 9 7 7 7 7 6 5 4 2 9

GFSNE_500_spd_072.txt.gz
Wind_Speed
72 70 70 71 72 74 76 78 79 79 80 81 84 86 83 82 80 71 69 70 68 61 56 51 49 48 48 47 47 48 49 52 54 57 60 63 69 73
71 71 71 72 75 77 78 78 79 82 84 81 81 81 79 77 71 67 69 70 63 55 49 46 44 43 42 41 41 43 44 47 49 51 52 55 59 63
72 72 72 75 77 77 79 80 82 84 86 82 79 77 75 69 67 70 71 66 57 50 45 43 40 38 38 40 41 43 46 47 48 48 48 48 48 52
71 72 75 77 77 78 80 82 84 86 86 82 76 74 72 66 68 70 70 61 52 46 41 39 37 35 37 39 42 42 42 43 43 42 41 40 41 42
73 76 76 78 79 81 83 86 88 88 82 79 74 69 66 69 70 71 66 54 49 44 40 37 34 35 36 37 37 37 37 38 38 37 36 36 36 37
76 76 78 79 81 83 86 89 90 85 78 74 70 67 69 71 72 68 59 50 45 41 39 36 33 35 36 34 35 36 34 32 32 32 33 34 35 36
76 78 80 82 83 86 89 90 87 80 74 71 71 73 73 73 70 62 53 45 41 39 37 35 33 35 35 35 32 30 30 29 29 29 30 31 33 35
77 79 82 85 87 89 90 88 81 75 75 76 76 76 73 68 62 55 47 41 38 37 34 32 34 35 36 35 33 29 27 27 28 29 30 32 33 34
79 82 84 87 91 93 92 86 78 77 78 77 75 70 65 59 54 47 42 39 35 34 34 30 33 34 35 35 33 29 25 25 27 29 30 32 33 35
81 84 86 90 94 93 88 81 79 79 74 70 65 61 56 51 46 41 37 36 32 32 33 30 32 33 34 35 32 27 23 24 26 28 30 32 35 36
83 86 89 92 93 89 83 79 76 71 67 62 58 53 47 44 40 37 34 33 30 30 31 30 30 32 31 35 33 26 21 23 26 29 31 33 35 35
85 88 92 93 88 83 81 77 70 64 61 56 52 44 41 39 36 33 32 30 29 28 30 27 29 31 29 30 35 26 21 23 25 29 30 30 29 29
88 91 92 89 82 78 77 71 64 61 57 51 45 40 37 36 33 30 30 29 28 27 28 27 27 28 29 27 30 28 20 23 24 27 25 26 26 27
90 92 89 82 79 75 71 64 58 55 49 42 38 36 38 35 31 29 28 28 26 26 26 26 26 27 27 27 25 26 22 23 24 24 25 26 25 24
92 90 82 79 77 73 62 55 51 46 41 44 41 39 39 35 31 29 27 27 25 25 24 25 25 25 25 26 22 23 22 24 24 21 24 24 23 23
91 83 78 75 73 64 53 47 45 41 39 41 42 43 41 35 30 29 26 26 24 24 23 23 24 23 23 26 20 20 21 23 23 21 21 21 21 23
83 78 76 72 66 52 44 42 40 36 37 41 41 43 37 30 28 28 26 25 24 24 24 23 23 21 21 23 19 17 20 19 19 20 17 17 19 21
75 75 71 68 54 43 40 39 37 36 35 34 35 33 29 25 26 25 24 24 24 24 23 23 22 21 22 21 17 16 18 17 16 16 15 15 16 17
75 71 68 61 48 42 40 39 38 35 36 35 30 30 27 25 24 25 23 23 22 22 22 22 21 20 20 20 16 16 16 14 14 14 14 14 14 16
73 69 65 57 48 43 41 41 39 38 35 34 30 28 26 24 23 22 22 22 22 21 20 20 20 19 18 18 15 15 14 13 12 12 12 13 13 12
70 67 63 55 48 45 43 42 41 39 36 33 29 27 25 24 23 24 23 22 21 20 20 19 19 18 17 17 15 13 12 11 10 10 11 11 10 8
69 66 59 53 47 44 43 41 40 40 37 33 29 26 25 24 24 23 22 22 21 20 19 19 18 17 16 15 14 12 10 9 9 8 8 7 7 6
70 63 55 50 45 43 41 39 38 39 38 32 29 27 26 25 23 21 22 22 21 20 19 19 17 16 14 14 13 11 10 9 8 7 7 6 5 8

GFSNE_500_spd_075.txt.gz
Wind_Speed
66 75 73 73 74 73 72 72 75 76 77 77 80 83 87 90 92 90 87 80 73 66 65 65 66 60 53 49 46 45 46 47 48 51 53 56 59 63
76 78 76 76 75 73 72 76 78 79 80 79 82 86 88 88 89 84 78 70 65 64 65 66 64 55 48 45 44 43 43 43 45 47 49 52 54 57
80 77 76 75 74 74 76 78 79 80 83 83 87 88 89 85 83 76 70 68 68 68 67 63 57 50 45 43 42 41 41 42 44 46 48 49 51 53
79 79 76 75 75 76 77 78 79 82 87 88 87 89 88 83 79 75 70 70 71 69 66 58 50 45 41 41 39 39 39 41 44 45 44 44 44 45
78 76 74 75 76 77 78 80 82 85 89 92 91 89 86 77 76 76 75 71 68 63 56 50 45 41 39 39 38 37 38 39 40 40 39 40 39 38
74 73 74 75 76 77 79 81 84 88 91 93 92 87 80 75 75 72 70 66 62 53 49 44 41 38 37 37 36 35 35 36 38 38 36 35 35 35
72 72 74 75 76 78 80 81 85 89 91 90 86 83 77 75 71 66 64 61 54 49 44 40 38 35 35 35 35 34 32 33 35 35 33 33 32 32
70 72 75 77 79 81 83 85 87 90 91 86 82 77 75 72 65 61 58 54 47 42 40 36 36 34 34 34 34 32 32 32 31 31 30 30 30 31
70 73 75 77 80 83 86 88 91 93 91 84 80 74 71 64 61 56 53 47 43 38 37 33 33 32 33 32 33 31 32 32 30 29 29 29 29 30
71 75 78 79 81 85 88 90 92 91 86 83 78 69 63 58 56 53 49 41 38 35 35 31 31 31 31 30 32 31 32 30 28 28 27 27 27 28
75 79 80 82 82 85 90 92 90 82 80 80 74 65 57 52 47 46 42 39 34 32 32 31 29 30 31 29 32 31 30 29 27 27 27 27 27 28
78 80 82 83 85 87 90 90 84 79 76 74 65 55 50 42 38 38 39 36 33 30 30 30 28 30 28 29 30 33 30 27 25 25 27 27 28 29
81 83 83 84 86 88 88 83 80 75 70 63 53 50 45 36 38 37 36 35 33 29 29 29 27 28 29 27 29 30 29 26 22 24 26 28 29 28
83 83 83 85 87 88 85 79 75 70 63 52 44 42 36 40 44 42 38 33 29 28 28 29 26 27 28 28 28 28 28 25 21 22 25 27 26 25
85 84 86 87 88 85 80 76 70 64 54 43 39 37 35 37 41 42 40 33 28 27 26 27 25 26 26 26 25 26 27 25 21 22 24 24 23 25
85 86 87 88 86 82 77 72 65 59 48 41 37 34 33 35 39 42 36 30 26 25 26 25 23 24 24 25 24 24 26 22 22 23 21 20 23 23
88 88 88 86 79 76 74 69 64 56 45 40 37 34 33 35 37 36 30 27 25 24 25 24 23 23 24 24 22 23 24 20 21 22 18 18 18 17
89 88 84 78 74 73 69 64 62 53 46 42 39 35 34 35 33 30 27 25 24 24 24 23 23 23 22 23 21 21 21 19 19 19 16 14 15 16
88 84 77 75 74 71 66 64 59 49 45 44 43 38 35 32 32 28 25 24 24 25 23 23 22 22 21 20 20 21 19 17 18 17 15 13 13 16
83 78 76 76 73 69 67 64 56 47 44 43 42 42 36 34 31 27 25 23 23 24 22 21 21 21 20 19 19 19 17 15 15 16 15 15 15 16
77 77 77 75 73 72 67 57 50 44 42 41 40 37 36 32 29 26 24 23 23 22 21 20 20 20 19 18 18 18 16 14 14 15 15 14 14 14
79 78 77 76 74 68 57 49 45 41 39 38 38 36 32 30 28 26 25 24 23 23 21 20 20 19 18 18 17 16 15 13 13 13 13 12 12 11
78 77 76 74 67 56 49 45 42 38 35 34 36 32 33 31 28 27 23 22 22 21 21 20 20 19 18 17 15 14 14 13 13 12 12 11 10 9

GFSNE_500_spd_078.txt.gz
Wind_Speed
49 47 52 54 62 71 74 77 77 74 73 70 72 74 77 79 82 84 85 86 86 87 84 78 67 65 65 63 61 59 53 48 44 42 43 45 46 48
54 60 61 64 66 72 76 78 77 76 73 73 74 77 79 81 84 87 90 91 89 86 77 72 65 63 64 61 55 52 46 43 41 41 41 42 44 45
62 62 70 77 79 80 77 77 76 75 76 74 77 78 80 83 86 88 90 89 85 79 72 69 63 60 56 52 49 45 42 41 39 39 39 40 42 44
75 73 79 74 76 76 76 75 72 73 77 78 79 81 84 87 88 90 89 87 81 73 68 64 57 55 50 45 43 40 40 39 37 37 40 41 41 41
68 70 71 73 72 72 71 70 72 75 78 81 81 82 86 88 90 89 86 85 75 67 61 55 49 47 45 40 38 38 37 36 36 37 39 41 39 38
66 68 69 68 69 68 67 70 73 76 79 81 84 86 89 88 88 85 83 77 71 63 56 50 47 43 39 35 35 35 35 35 35 37 36 36 37 36
66 67 68 67 66 66 70 72 75 78 80 82 84 88 89 87 86 83 79 75 66 58 54 48 43 38 35 34 33 33 33 34 34 35 36 35 35 32
66 67 67 66 68 70 73 75 79 82 84 86 89 90 88 86 85 79 75 68 61 51 50 45 41 36 33 31 31 31 32 32 31 32 32 32 32 30
66 66 66 68 71 73 75 78 81 84 87 89 91 90 87 82 78 73 66 58 51 45 44 40 38 34 31 28 29 30 31 30 29 30 31 32 30 28
68 67 69 70 73 77 79 82 85 86 87 90 89 87 82 76 70 65 57 50 43 38 41 38 35 30 29 27 27 30 29 28 27 29 30 30 28 26
69 68 71 74 78 81 83 85 86 85 87 87 85 81 77 70 64 55 49 45 36 37 38 36 32 28 27 25 28 28 27 26 27 29 29 29 27 25
69 71 74 77 81 84 87 88 88 87 88 85 82 77 70 63 56 49 44 38 37 35 37 34 31 28 24 25 27 27 27 26 27 27 27 27 26 24
73 75 77 81 84 87 89 89 89 89 86 83 79 71 63 57 50 44 39 36 39 39 40 36 30 27 25 23 26 27 27 27 26 26 26 25 25 24
75 77 80 84 87 89 90 89 89 87 81 78 74 65 60 54 46 42 36 32 35 36 40 38 29 26 24 24 24 25 26 26 24 24 24 23 24 26
79 81 85 88 91 91 88 88 86 81 78 75 67 60 57 51 44 38 33 34 36 37 33 30 28 24 23 23 22 23 24 24 23 23 21 22 24 27
83 86 89 91 91 88 87 84 80 77 76 71 63 59 56 49 41 35 33 34 35 31 29 26 25 23 23 23 22 22 23 22 22 23 19 21 24 23
87 90 92 91 89 88 84 79 76 75 71 67 63 60 54 46 39 34 34 35 32 29 25 23 23 21 22 22 22 22 21 21 22 21 19 20 20 20
92 94 93 92 88 84 79 76 74 71 67 65 61 52 49 42 39 36 35 35 30 28 24 23 21 19 20 21 21 21 21 19 21 18 18 18 18 18
94 94 91 87 83 80 78 75 71 68 66 62 53 41 45 44 42 39 33 31 27 26 24 22 20 19 19 19 20 19 18 17 19 17 16 16 17 19
93 90 87 84 81 78 76 74 71 68 62 53 45 41 42 45 42 38 32 31 27 24 22 22 20 19 19 16 18 18 17 17 17 16 16 16 17 17
90 88 84 81 79 77 75 74 69 62 52 44 41 38 37 38 37 36 31 28 26 23 21 20 19 18 18 16 16 17 16 15 15 15 15 15 15 14
87 84 81 80 78 76 73 68 60 52 46 41 38 34 34 34 32 27 27 26 24 22 20 20 19 18 17 16 15 15 15 15 15 14 13 13 12 13
85 82 80 77 75 71 65 58 52 47 42 37 33 31 30 30 30 24 26 24 24 21 21 19 18 17 16 15 14 14 14 14 14 14 12 12 11 11

GFSNE_500_spd_081.txt.gz
Wind_Speed
44 49 48 50 50 63 65 70 75 73 69 66 67 65 64 67 70 72 73 75 79 82 85 87 87 87 87 79 72 68 66 62 58 55 52 48 45 44
46 59 61 49 62 64 71 69 70 70 69 67 66 66 69 70 72 74 77 81 83 88 90 88 86 87 83 70 66 63 59 53 51 49 45 42 41 40
48 61 59 56 63 62 64 66 68 69 68 66 66 68 70 72 75 77 80 85 90 92 91 87 86 81 72 65 60 55 52 50 47 43 39 38 39 38
48 49 55 59 61 64 66 67 66 68 68 68 69 71 73 77 79 82 85 89 91 89 88 87 83 74 65 55 52 50 49 45 42 37 35 36 37 37
50 54 58 62 64 66 65 66 68 69 70 71 72 74 76 79 82 85 87 90 90 85 84 81 74 68 56 49 47 47 46 43 37 34 34 35 35 36
56 60 61 63 64 64 65 67 68 69 71 72 73 75 78 81 84 86 87 87 86 82 80 76 68 60 48 47 44 43 40 38 34 32 32 33 35 35
59 59 63 64 64 65 67 68 69 70 72 74 76 79 81 83 86 89 91 89 85 79 76 70 62 52 46 45 43 39 36 31 31 32 31 32 34 34
61 63 65 64 64 67 69 70 72 73 75 78 80 83 85 88 88 89 88 85 82 73 69 61 53 46 41 39 38 36 32 30 30 30 30 31 33 32
65 66 65 66 67 68 67 69 73 76 79 82 83 86 89 89 88 86 80 80 74 67 62 53 47 40 39 36 35 32 30 29 28 28 29 30 30 29
66 66 66 67 68 68 69 71 74 77 81 85 88 90 90 87 85 82 78 74 66 60 56 49 39 37 35 35 32 30 29 28 27 27 28 29 29 29
67 66 66 68 69 70 71 73 75 78 83 87 91 91 89 86 82 77 73 67 60 52 50 47 38 35 33 33 30 30 28 26 26 26 27 28 28 28
67 66 68 70 71 73 76 78 80 82 86 89 90 89 86 83 79 76 68 60 56 49 42 44 39 36 29 30 29 29 27 26 26 25 26 27 27 27
67 69 71 73 75 78 81 83 85 88 91 93 92 88 84 80 75 69 61 56 53 46 41 41 36 36 32 26 27 29 27 25 26 25 26 25 26 27
71 73 75 77 80 82 83 87 91 94 94 93 90 84 80 75 71 63 57 55 49 41 37 37 34 35 32 25 24 26 25 25 24 24 24 24 26 25
75 77 79 82 83 84 88 93 96 94 92 89 84 80 76 71 64 61 57 51 43 37 32 32 35 34 29 24 22 23 23 24 24 22 22 23 24 22
80 81 83 84 85 89 94 95 94 91 87 84 79 75 72 66 62 60 53 45 38 33 31 32 32 30 25 23 21 21 22 21 23 22 21 22 21 20
81 83 85 87 91 94 95 93 89 86 82 79 76 72 68 66 60 55 48 39 32 31 32 32 31 27 23 22 21 21 22 22 21 21 20 20 20 20
83 86 90 93 96 96 92 89 86 82 78 75 72 69 65 59 52 44 44 38 34 33 31 30 28 24 22 21 21 20 21 19 20 19 18 19 20 18
89 93 95 96 95 91 89 86 82 78 75 72 69 65 60 52 44 39 45 41 33 32 28 26 25 22 20 19 23 20 19 18 19 18 18 18 19 17
94 96 95 93 91 89 86 82 78 75 73 70 66 60 51 42 39 37 37 40 39 29 30 26 24 22 18 20 20 20 17 17 15 16 17 16 16 16
96 94 93 91 88 85 81 79 77 74 70 65 59 51 44 38 37 36 42 45 42 37 29 25 24 20 19 18 19 18 15 15 14 15 16 15 14 13
96 93 89 85 82 81 81 78 75 70 64 57 50 43 39 36 34 33 36 39 38 29 26 23 21 20 18 18 18 17 15 14 13 14 14 14 13 13
88 85 83 83 82 81 79 75 69 62 54 48 42 38 34 32 30 29 30 27 25 25 21 19 19 19 19 17 17 16 15 14 12 12 12 12 12 11

GFSNE_500_spd_084.txt.gz
Wind_Speed
39 43 38 43 45 49 51 56 52 55 58 59 61 60 61 62 61 63 65 66 69 73 76 77 81 84 88 91 90 88 86 86 83 75 67 60 57 54
38 39 44 46 48 48 49 51 56 58 59 60 59 59 61 61 63 64 66 69 72 76 79 82 85 90 94 94 91 89 85 82 75 68 57 53 51 49
37 38 43 46 48 49 52 54 58 60 61 59 58 60 62 63 65 68 70 73 76 80 82 86 89 92 91 88 87 85 81 74 66 61 51 48 48 45
41 43 45 48 51 55 58 59 61 63 61 61 61 62 63 65 68 71 74 78 80 83 87 91 93 92 89 87 82 78 72 65 57 53 48 44 42 41
45 47 50 54 56 59 60 62 63 63 63 64 64 64 65 68 71 74 77 80 83 89 91 94 90 87 84 81 76 71 64 55 50 48 44 40 39 39
49 50 54 58 60 63 65 66 66 66 66 67 68 66 67 70 74 77 78 82 86 91 91 91 84 82 81 76 71 64 57 51 46 40 39 38 36 35
50 57 62 64 67 68 68 69 68 67 67 68 69 69 70 73 76 79 82 86 89 92 89 88 81 81 75 70 64 56 49 45 44 39 37 35 32 32
55 61 64 66 69 71 72 71 71 71 70 72 72 73 73 77 79 83 87 91 93 89 87 83 76 74 70 64 57 49 44 43 39 35 33 31 31 31
62 63 65 68 70 72 74 71 72 72 73 73 74 75 78 82 85 87 91 93 92 86 83 77 70 65 62 58 50 44 41 39 35 32 30 30 30 31
63 66 71 72 71 70 70 70 71 73 75 77 78 79 82 84 88 91 92 91 87 80 76 73 64 59 58 52 45 43 40 37 34 31 29 28 30 30
70 73 73 72 71 71 70 71 73 75 78 79 81 82 83 87 91 93 90 89 84 78 71 66 60 58 53 47 44 41 39 37 32 29 28 28 29 29
71 73 74 72 70 72 74 76 77 79 81 82 82 84 88 90 92 91 89 86 81 74 64 62 58 56 48 44 43 39 40 37 30 28 27 27 28 28
73 73 72 71 72 75 78 80 82 84 84 84 85 89 92 94 92 89 87 82 76 69 61 58 55 51 46 43 38 35 38 33 28 27 26 27 27 27
71 70 72 73 75 78 82 85 86 86 86 88 91 94 95 94 90 86 81 75 70 65 60 53 49 45 42 39 35 32 33 30 27 27 25 26 26 26
71 73 75 78 81 83 85 87 87 89 91 94 96 97 94 90 85 79 73 69 65 60 55 48 41 39 39 37 32 30 29 28 26 25 23 24 25 24
76 78 81 82 84 87 88 89 91 94 97 98 98 94 89 84 78 74 69 64 62 55 47 40 36 35 35 35 31 26 27 25 26 23 21 24 23 23
84 86 86 87 88 88 89 92 95 97 99 98 93 88 83 77 72 69 66 60 56 49 41 32 30 34 33 32 28 25 25 24 24 23 23 23 24 22
84 86 88 89 90 92 95 96 98 98 94 90 86 82 77 74 70 66 61 54 48 41 39 36 35 32 30 26 26 24 23 23 22 23 22 23 23 18
88 89 91 94 95 97 98 98 95 91 88 84 80 78 76 72 68 62 54 47 41 39 41 38 36 28 28 22 26 23 22 21 21 21 20 20 20 16
94 95 96 97 98 98 96 93 88 84 82 80 79 76 73 70 64 56 46 40 38 40 42 40 26 28 27 21 23 26 22 20 21 20 20 19 18 15
97 98 98 97 96 93 89 86 84 82 81 78 77 74 70 64 54 45 38 36 35 36 40 40 30 33 27 21 23 25 21 20 20 19 18 17 15 14
99 98 97 94 91 87 85 83 82 80 78 76 73 68 60 50 43 38 34 33 32 37 43 45 44 35 25 21 22 22 19 18 18 18 17 15 13 13
96 92 90 87 86 85 83 81 79 78 75 71 63 55 47 41 36 33 31 30 31 38 44 44 37 28 23 23 23 21 19 17 17 16 15 14 13 12

GFSNE_500_spd_087.txt.gz
Wind_Speed
38 36 39 40 42 43 41 45 47 48 50 51 54 56 58 62 63 62 61 63 65 64 65 67 68 71 75 78 81 85 90 95 94 93 91 89 85 76
36 38 40 41 42 42 43 45 48 51 55 56 58 58 62 64 63 62 64 65 64 64 67 68 70 74 78 81 86 91 95 96 93 91 87 83 77 68
37 38 42 43 43 46 47 48 52 56 57 57 59 61 63 64 64 65 65 66 66 68 69 71 75 78 81 86 90 93 96 94 91 88 82 77 69 61
42 47 46 45 47 48 50 52 54 56 58 59 61 64 65 66 67 67 67 68 69 72 74 77 79 83 87 91 93 95 94 89 85 81 75 70 63 57
47 47 47 49 51 53 54 55 58 60 61 63 64 66 68 67 68 69 69 70 72 74 77 80 83 87 90 91 93 91 89 84 79 73 68 63 56 50
47 46 49 52 56 57 58 58 61 62 65 67 67 68 68 68 68 69 71 72 74 78 81 84 86 89 92 91 91 89 82 77 71 69 64 57 51 45
52 44 55 57 58 59 60 62 64 68 70 70 70 71 69 68 70 73 76 77 79 80 82 85 88 91 92 91 90 85 77 69 66 63 57 52 47 40
51 61 63 59 61 65 66 68 71 71 71 72 73 70 69 72 76 79 82 83 82 82 85 87 91 92 91 89 86 78 69 64 63 58 51 47 41 36
51 65 65 63 66 69 71 71 73 74 75 75 71 71 75 78 80 82 85 85 86 86 90 92 92 92 87 85 78 70 63 61 58 52 48 44 36 32
63 64 67 67 71 74 74 74 76 76 77 75 75 76 78 81 83 85 87 88 88 89 93 94 91 87 82 77 70 63 59 57 53 47 46 40 34 31
64 69 71 73 74 74 77 78 78 77 75 76 78 79 81 84 87 88 88 90 90 90 91 92 87 83 75 70 64 59 56 53 49 43 44 37 33 30
71 72 73 76 76 78 79 77 76 75 77 79 80 82 86 88 89 89 90 92 93 94 87 87 82 76 71 64 59 55 51 50 44 40 40 35 32 29
72 75 77 78 79 78 79 79 80 80 81 83 85 87 89 89 88 90 91 94 94 93 85 83 76 71 67 60 54 49 48 45 40 38 37 32 28 26
78 78 77 76 76 79 82 82 84 86 88 90 89 88 89 89 90 92 94 96 94 88 81 77 73 66 61 56 50 44 43 40 37 35 32 27 24 25
78 77 77 79 82 84 86 88 89 91 89 89 91 91 90 91 93 94 96 90 86 80 75 73 69 62 55 50 42 38 39 39 35 31 27 23 24 24
74 78 81 84 87 90 91 89 89 91 94 94 92 92 93 95 97 94 89 84 78 73 72 68 63 55 44 44 39 33 36 36 34 30 23 22 23 24
80 83 86 89 90 90 91 93 96 97 96 95 95 97 98 97 93 88 83 78 75 71 67 61 55 48 42 36 33 36 40 35 30 27 22 21 23 23
82 86 89 91 94 95 97 98 98 98 98 99 99 98 95 91 85 82 80 77 72 68 63 53 46 41 34 31 29 33 32 27 26 23 21 21 24 21
87 90 93 95 97 99 101 101 101 100 99 98 96 92 88 84 82 79 76 72 69 63 52 41 36 26 35 33 31 31 28 25 22 21 21 20 23 20
93 96 98 100 101 101 101 100 99 97 95 92 89 87 85 82 79 76 73 69 64 53 40 34 31 35 37 35 38 26 26 22 21 21 19 19 20 18
99 101 102 102 101 100 99 97 94 92 90 88 87 85 82 79 75 73 68 61 51 40 32 31 38 46 46 40 31 27 24 21 21 21 18 18 18 18
103 104 103 102 99 96 94 92 90 89 88 86 84 81 78 75 71 64 55 45 37 31 28 28 34 39 37 31 32 29 23 20 21 19 19 18 18 18
102 100 97 95 93 92 92 90 89 87 85 82 78 75 70 64 57 48 39 33 29 27 26 27 31 33 36 36 34 27 20 19 20 19 18 18 17 16

GFSNE_500_spd_090.txt.gz
Wind_Speed
40 40 41 43 43 42 40 45 47 42 42 43 45 48 51 55 57 57 59 62 64 65 63 63 65 66 66 67 69 71 73 75 78 83 86 89 92 95
40 41 41 42 45 46 44 46 45 44 45 47 50 51 55 58 59 59 62 65 66 65 64 65 65 67 67 68 71 73 75 78 82 85 88 92 95 95
41 40 40 41 43 46 51 52 48 47 50 50 53 56 59 60 61 63 65 66 66 65 64 65 65 68 69 71 74 76 79 83 85 89 91 92 92 91
43 42 43 45 50 51 49 48 49 52 55 56 57 59 60 62 65 67 68 68 67 65 65 66 68 70 74 77 78 81 83 85 88 90 91 91 87 83
47 49 49 50 52 51 52 48 52 58 59 61 61 63 64 67 70 69 69 70 68 66 67 69 72 76 79 80 81 84 85 88 90 90 89 87 81 74
48 50 51 50 51 55 47 54 60 65 64 64 67 69 70 71 72 72 72 70 68 69 71 74 77 80 82 84 85 86 87 89 90 88 84 79 73 66
47 47 48 50 56 60 50 62 67 71 68 65 69 74 74 76 76 75 73 70 69 71 73 77 80 83 85 86 87 88 90 90 87 83 79 73 65 61
46 48 51 52 56 50 57 65 70 68 70 75 77 77 78 77 77 76 74 74 74 75 78 80 84 85 86 89 89 90 91 89 84 79 73 66 61 56
53 52 55 45 58 61 67 70 70 77 72 74 78 79 80 78 77 77 78 79 80 81 84 85 87 86 88 88 90 92 92 85 79 71 65 61 56 51
55 51 54 63 72 68 66 70 72 74 75 80 83 81 80 78 80 82 83 84 84 85 89 89 88 88 88 89 92 92 84 77 69 64 61 57 51 46
66 61 64 66 70 72 74 75 72 78 81 83 81 82 82 83 85 86 87 88 87 87 89 90 89 89 89 90 90 83 75 68 64 60 57 52 45 41
66 67 68 69 76 74 74 77 77 79 84 84 84 85 85 86 89 91 90 89 89 89 87 89 88 91 93 87 79 73 69 65 61 57 52 46 39 37
69 71 74 76 79 79 76 79 80 83 84 84 87 87 88 90 91 90 89 89 88 88 87 91 91 93 87 79 71 66 65 61 56 50 46 39 35 33
72 74 75 76 77 78 84 85 85 87 88 91 92 92 93 93 92 91 90 89 90 89 89 93 93 85 78 73 67 63 60 56 50 43 39 34 31 29
74 75 76 77 80 82 86 88 88 90 92 93 95 96 95 95 94 92 91 90 89 91 92 88 84 77 73 69 64 59 56 47 41 38 35 30 27 27
73 75 78 81 84 86 87 89 91 93 96 97 98 98 97 95 94 94 94 94 92 88 87 83 78 74 70 65 60 54 48 40 36 34 31 27 25 24
81 82 83 85 88 91 92 93 96 98 99 101 101 101 101 100 100 98 96 95 91 85 78 75 75 70 65 61 54 44 36 33 34 39 32 27 23 23
81 85 88 90 92 94 96 99 101 103 104 105 105 105 102 100 98 95 93 90 85 81 76 72 69 65 61 55 46 35 29 29 34 33 28 22 22 22
87 91 93 96 100 102 105 106 107 108 107 106 105 103 99 96 93 90 87 84 81 78 73 69 64 60 54 45 33 27 27 23 23 26 23 20 21 20
95 98 101 104 107 109 110 109 109 107 105 103 99 97 94 91 89 87 85 82 78 73 67 63 57 49 40 30 24 21 34 30 26 25 21 19 20 18
102 106 108 110 111 112 111 109 106 102 100 97 96 94 92 89 87 83 79 75 70 65 58 50 43 34 29 27 30 33 35 32 24 20 20 19 19 18
107 109 111 112 110 107 104 103 101 100 98 96 93 90 87 83 79 74 69 64 57 48 40 33 29 27 28 34 31 34 34 34 22 20 20 19 17 16
108 108 106 105 104 103 101 99 97 94 91 88 84 80 75 69 65 58 51 44 37 32 25 23 24 25 35 34 26 30 38 25 19 20 20 18 16 15

GFSNE_500_spd_093.txt.gz
Wind_Speed
39 41 44 48 50 48 48 50 49 46 47 50 49 51 50 48 51 53 56 59 61 63 62 62 65 64 66 67 66 63 62 63 66 68 71 73 74 77
45 48 51 50 49 51 52 50 47 48 47 50 54 52 51 52 56 59 60 61 62 63 65 67 68 68 68 68 64 63 65 67 70 72 74 77 79 81
52 57 55 56 45 50 52 46 47 49 52 52 53 51 50 52 57 63 65 64 63 66 68 69 71 72 70 68 65 65 68 71 72 76 77 79 82 82
55 56 51 53 53 50 45 48 52 52 53 55 59 57 55 60 65 68 66 67 72 75 75 74 74 73 70 67 67 68 70 73 77 78 80 82 83 84
35 41 43 44 49 53 53 57 55 56 56 60 58 56 59 68 70 69 68 70 74 82 81 77 75 73 71 70 71 73 75 78 81 82 82 82 83 85
38 38 41 46 51 46 58 55 56 60 62 64 60 58 65 71 71 75 71 77 84 84 82 78 76 73 73 75 76 77 78 81 82 83 83 83 84 88
45 46 50 51 57 58 55 52 58 59 65 66 62 71 73 77 68 78 82 80 83 87 83 78 74 75 77 78 79 80 82 82 83 84 83 84 88 89
45 46 49 53 61 59 48 54 49 61 65 65 72 75 71 78 81 80 81 83 85 82 81 77 78 79 79 82 84 83 82 82 83 83 84 87 89 80
50 49 49 51 49 53 59 50 63 58 69 67 77 74 77 82 77 79 83 87 85 84 84 82 82 83 86 86 84 83 83 83 82 83 87 87 79 71
54 55 55 54 52 58 71 73 70 74 75 75 81 82 78 78 79 83 85 88 89 89 90 87 87 89 88 85 83 83 82 81 83 87 86 78 70 64
58 58 59 60 59 60 64 71 73 74 74 75 83 82 82 83 89 92 92 94 92 92 94 94 91 90 87 84 82 81 82 84 87 83 75 68 63 58
58 60 63 65 65 65 71 72 74 77 79 79 80 83 86 90 98 98 97 96 95 94 97 95 94 91 86 82 80 81 87 87 80 73 66 61 57 53
62 64 65 66 69 71 74 76 77 78 80 83 86 90 95 99 101 99 98 98 97 96 97 96 91 88 86 83 83 86 83 79 73 65 60 56 52 46
64 66 67 69 72 74 75 76 77 79 82 89 93 96 97 98 99 100 100 101 101 99 94 91 88 85 87 88 83 77 74 70 65 60 56 50 46 40
66 67 70 72 74 76 80 82 85 89 91 94 96 98 100 102 104 104 103 102 99 95 92 90 93 92 88 84 79 71 67 63 61 54 50 45 39 33
70 73 77 79 81 83 85 88 91 94 98 100 102 105 106 106 106 106 104 102 100 99 98 94 92 89 83 77 73 66 62 57 53 49 43 38 32 27
74 77 80 84 87 90 93 95 98 101 104 106 107 109 110 110 110 109 108 105 101 96 92 88 86 83 77 72 68 63 56 52 47 42 36 32 28 28
79 82 85 88 91 95 98 101 103 106 109 111 113 114 113 111 108 104 101 98 94 90 85 82 80 77 75 70 64 57 51 44 38 32 26 30 32 31
86 88 92 95 99 102 106 109 111 113 114 115 114 112 108 104 102 99 96 93 89 86 83 79 76 73 68 61 56 49 42 35 31 28 28 26 25 24
93 97 101 104 107 109 111 113 115 115 114 111 109 106 104 101 98 95 92 88 84 79 74 71 68 63 57 51 43 37 31 30 26 28 23 19 20 20
102 106 109 111 112 113 113 112 111 109 108 106 103 99 96 92 88 85 80 76 71 67 61 58 55 50 43 36 29 27 29 31 31 29 25 19 18 19
109 110 110 110 109 107 107 107 105 102 100 96 91 86 81 76 72 66 62 57 53 49 43 40 37 32 26 22 22 31 29 29 29 30 27 19 18 21
107 106 104 103 102 100 97 93 88 82 76 71 67 63 59 54 50 44 40 36 33 30 27 25 23 20 18 21 31 32 31 30 25 26 22 19 20 20

GFSNE_500_spd_096.txt.gz
Wind_Speed
31 35 39 41 45 48 49 51 52 59 59 58 59 56 47 48 53 55 55 55 54 49 50 56 58 61 61 64 64 66 69 70 70 68 65 65 65 66
35 38 41 44 50 54 55 57 59 62 61 60 60 54 49 52 55 57 56 60 58 54 60 61 62 62 63 66 69 72 76 74 73 69 67 67 68 70
36 42 48 57 59 58 66 61 58 60 57 58 61 57 51 55 55 58 61 61 63 61 63 64 66 68 69 71 73 78 78 78 74 70 69 70 72 74
45 32 32 40 43 43 42 56 58 55 53 57 62 61 55 60 62 66 65 64 57 66 73 74 77 77 77 75 79 78 79 78 75 74 73 71 74 78
34 36 40 43 42 43 46 47 51 53 60 59 62 60 60 62 70 76 64 60 62 69 67 74 72 74 77 84 82 81 79 78 78 75 75 76 78 80
40 43 45 46 46 48 51 53 55 58 59 60 67 77 66 63 66 64 72 69 73 73 74 70 77 80 81 83 83 83 84 81 78 79 79 80 81 81
47 48 49 50 51 52 55 57 59 61 65 68 72 71 70 75 68 71 72 79 80 79 72 78 77 83 85 85 86 84 85 86 83 81 82 83 82 79
50 52 52 54 54 56 56 57 58 59 64 64 56 71 72 68 74 74 78 73 84 83 79 79 87 89 89 92 92 92 91 87 85 84 84 82 79 77
55 56 57 58 58 60 60 61 60 62 63 62 71 71 78 86 78 73 81 84 86 87 87 89 94 95 94 97 97 93 92 90 86 83 81 77 74 74
58 60 61 61 62 63 64 65 65 64 66 69 70 72 74 77 80 81 87 87 86 88 93 94 96 98 101 105 100 95 91 88 85 80 76 74 73 76
59 61 63 65 66 66 66 67 68 69 69 70 72 73 77 82 86 87 87 89 91 95 101 102 99 105 105 103 101 96 91 87 81 77 73 73 78 79
63 65 64 65 65 66 66 68 70 71 72 72 74 79 83 86 88 89 92 93 95 99 103 107 110 109 105 102 99 94 88 83 78 75 77 81 75 70
62 62 63 63 64 64 65 67 69 71 74 77 80 83 86 89 92 95 97 100 103 105 110 113 109 107 106 100 96 89 83 79 82 82 76 72 66 62
60 60 61 61 63 66 69 72 75 78 81 84 86 89 92 94 97 99 102 106 108 110 110 110 109 106 103 98 91 89 88 86 81 75 70 64 60 55
61 60 63 67 70 74 78 80 83 85 88 91 94 96 99 102 104 106 109 111 113 113 113 112 111 108 104 101 95 87 82 76 72 68 63 59 55 51
65 69 73 76 80 84 86 87 89 92 95 99 102 105 108 111 113 115 116 118 118 116 115 112 107 104 98 93 89 81 75 68 64 61 57 53 50 47
70 73 77 82 86 88 91 95 98 101 104 108 111 114 116 118 119 120 120 119 117 113 108 105 100 96 91 86 81 74 67 62 58 54 50 47 43 41
77 81 84 87 91 95 99 103 107 110 113 115 116 118 118 119 117 115 113 111 108 104 100 96 92 88 83 77 73 66 60 54 49 46 41 41 37 33
82 86 90 94 98 103 107 111 113 115 115 115 114 112 110 109 107 106 103 100 95 91 86 83 80 76 72 66 60 57 50 45 42 39 37 34 28 27
88 93 98 102 107 111 114 115 114 111 107 105 103 101 99 96 92 87 82 79 75 72 69 66 64 62 58 52 47 45 43 36 34 31 27 28 27 33
96 102 107 110 112 112 108 103 100 97 95 91 87 83 79 76 71 67 63 60 56 53 48 46 46 44 41 38 33 34 35 29 30 31 29 26 25 24
104 107 109 109 104 98 94 92 87 82 77 73 69 66 62 58 53 49 45 41 38 35 32 31 31 29 26 22 21 25 22 25 29 32 28 29 28 20
107 106 101 95 91 87 81 76 72 67 63 59 56 53 47 42 37 33 29 26 24 22 20 20 18 16 14 13 17 20 23 29 40 29 25 26 26 22

GFSNE_500_spd_099.txt.gz
Wind_Speed
22 25 28 31 34 38 40 44 48 53 55 57 56 56 59 62 65 63 59 56 53 51 55 55 57 59 58 61 58 60 61 61 64 67 67 68 70 71
25 28 31 33 35 38 42 45 57 57 49 54 56 58 60 49 56 58 59 62 66 56 58 58 63 63 59 61 66 71 76 73 74 71 71 76 74 73
27 29 33 34 40 37 35 41 46 47 48 47 51 54 59 68 65 58 57 70 72 57 60 63 65 66 61 60 62 70 68 71 70 69 72 75 74 75
31 34 36 38 36 37 42 46 49 54 56 53 52 54 57 58 59 64 64 65 73 71 69 66 64 65 65 68 66 71 75 77 72 76 79 79 80 79
35 38 38 41 43 45 47 48 52 54 59 61 59 60 63 62 64 65 64 69 80 80 69 74 72 71 76 76 75 72 77 74 80 81 80 78 78 81
40 43 44 46 48 50 51 54 56 61 62 63 63 65 66 68 70 64 75 77 72 74 80 72 73 77 77 82 85 80 79 81 83 86 83 85 83 85
44 46 49 51 55 56 58 59 61 63 64 66 66 67 68 68 69 71 77 75 69 65 75 83 79 76 82 75 76 83 84 88 90 91 90 91 92 92
48 51 54 56 57 59 61 62 64 66 68 70 70 71 72 72 71 74 75 76 78 81 83 84 89 85 79 84 86 90 89 89 92 93 96 97 96 95
55 56 57 59 61 62 63 64 66 69 72 74 75 75 75 75 76 76 77 78 80 82 84 85 88 89 89 91 92 91 94 97 100 100 100 99 97 91
57 58 59 61 64 66 67 69 72 75 76 75 75 76 77 76 77 78 79 80 80 85 90 92 95 96 97 96 97 99 101 102 102 103 103 102 93 84
59 61 63 65 69 70 72 74 76 74 74 74 74 74 74 75 77 79 81 83 85 87 93 97 97 99 101 101 102 104 105 105 106 107 103 93 82 74
65 66 66 67 70 71 71 73 72 71 70 70 70 72 75 79 82 84 86 88 91 92 96 101 102 105 107 105 107 108 110 109 106 100 89 80 75 79
64 67 69 69 69 70 71 71 72 71 73 77 81 84 86 89 90 91 93 96 99 101 103 107 108 109 112 112 110 111 111 108 101 97 92 86 80 75
66 66 67 69 70 69 69 71 74 78 81 83 87 90 92 94 97 100 103 105 108 111 113 115 117 118 117 117 114 112 108 103 97 92 85 78 72 66
64 67 68 69 70 72 74 77 82 85 88 91 93 96 100 103 106 110 113 116 118 120 121 121 121 121 118 115 110 104 99 93 87 79 71 66 64 63
65 67 69 71 73 76 80 84 88 90 92 97 101 105 109 113 117 120 122 123 124 122 120 118 116 114 111 108 104 97 89 82 76 70 64 63 59 58
65 66 69 73 78 82 85 89 94 97 101 106 110 114 117 119 120 120 118 115 112 109 106 105 104 103 101 97 92 85 78 73 67 61 60 57 52 50
67 71 75 78 83 87 91 96 101 106 110 113 115 115 114 112 108 104 102 100 97 94 91 88 86 84 82 78 75 70 67 63 59 55 51 48 43 40
73 76 80 84 88 93 99 104 108 111 113 113 111 106 102 99 95 91 88 85 81 79 76 73 69 67 64 59 53 52 53 47 42 39 39 38 31 22
79 82 86 91 97 102 106 110 113 111 107 102 98 93 88 84 79 76 72 70 67 64 59 56 53 50 47 42 36 34 41 35 33 33 31 30 27 27
84 89 94 99 104 108 111 109 104 99 94 88 83 78 74 71 67 64 61 59 55 50 44 39 36 33 30 27 22 23 28 23 21 23 24 28 30 28
91 96 101 105 108 106 102 98 91 85 80 76 71 68 65 60 55 54 52 48 43 38 33 28 24 20 17 13 12 15 15 14 19 21 27 28 26 29
97 102 104 104 100 95 89 83 78 75 71 67 65 61 55 48 46 45 43 39 34 29 25 20 15 11 7 4 6 7 11 19 26 41 32 23 28 24

GFSNE_500_spd_102.txt.gz
Wind_Speed
20 20 22 22 23 25 29 31 33 35 37 40 41 44 41 43 46 46 49 52 55 59 65 65 58 57 61 66 66 57 58 61 64 67 70 71 69 65
20 22 24 25 26 28 32 34 37 42 37 39 42 45 49 49 50 51 51 52 52 54 55 57 53 57 63 71 64 70 66 61 64 65 67 66 64 61
23 24 26 29 31 35 33 34 39 38 42 45 48 48 53 55 56 58 57 57 56 58 61 61 61 58 59 66 74 77 72 60 66 70 71 72 71 70
27 30 31 33 35 37 38 40 44 47 49 52 54 55 58 59 60 61 61 62 63 64 64 64 66 62 63 68 73 83 69 73 72 73 78 78 78 75
31 33 36 36 35 38 42 45 46 50 51 57 62 62 63 64 65 67 67 68 68 70 71 72 71 72 76 74 73 69 65 69 68 72 79 79 83 85
35 36 37 39 42 44 46 49 49 60 61 63 65 66 67 68 69 70 71 72 73 74 75 75 76 77 80 80 75 73 75 72 74 73 76 80 80 83
38 40 41 44 46 47 51 55 58 61 64 66 68 69 71 73 73 74 75 77 77 77 76 75 75 77 78 79 80 81 84 77 78 80 82 84 86 88
42 44 48 50 53 54 58 60 61 65 67 69 72 75 75 76 77 79 82 81 80 79 78 78 79 78 79 79 80 81 82 84 86 87 87 87 88 90
47 50 53 55 57 60 62 63 66 68 70 73 75 75 77 80 81 81 81 81 81 80 79 78 78 78 80 81 83 84 87 90 92 94 94 94 94 95
50 52 56 58 61 63 67 70 72 73 73 75 77 78 77 78 79 79 81 81 81 82 86 87 89 89 89 90 90 91 93 96 98 99 102 103 102 102
52 57 61 64 65 66 68 70 72 75 76 75 76 77 79 79 80 82 84 86 88 90 94 95 96 96 96 96 97 99 101 103 105 106 107 107 105 101
59 58 58 61 64 67 70 73 74 73 74 77 78 79 80 82 84 87 90 94 96 98 100 102 104 108 107 106 107 110 110 111 111 112 110 107 102 98
54 57 59 64 67 68 70 71 74 76 78 79 81 83 84 87 91 94 97 99 101 104 108 113 114 117 121 120 117 118 118 117 116 115 112 108 104 98
60 63 65 67 69 71 72 74 75 77 78 80 82 86 90 93 96 99 102 106 111 114 117 121 124 125 127 127 124 118 114 110 107 103 100 97 91 84
65 64 67 69 70 71 73 75 75 77 80 84 88 91 95 99 103 107 111 115 118 120 122 123 124 122 119 116 112 106 101 97 93 90 87 82 77 70
67 65 65 67 70 72 73 76 79 83 86 90 94 97 102 107 111 115 118 120 121 119 117 113 109 106 103 99 96 93 86 83 80 78 74 69 64 57
64 64 69 70 71 73 78 81 85 89 92 96 100 105 110 114 117 119 119 117 112 107 100 95 92 89 85 83 80 76 71 68 67 64 61 58 53 52
62 65 68 71 75 78 82 86 89 94 98 104 109 113 116 117 115 109 104 98 93 88 84 80 76 72 69 65 66 62 58 53 47 42 40 42 44 48
63 67 72 76 78 82 87 91 96 101 106 111 114 116 113 107 99 92 87 82 78 74 70 66 64 62 56 48 43 46 43 37 34 33 34 34 33 38
69 73 76 80 84 88 94 98 103 108 112 113 111 104 95 88 83 78 74 70 65 60 56 56 53 49 44 35 26 28 32 22 21 19 20 21 24 26
74 77 81 85 90 95 100 105 109 110 108 102 93 86 81 76 72 69 64 58 52 49 48 46 41 37 32 25 19 18 19 10 9 11 14 16 21 27
77 81 87 92 96 101 105 106 103 98 91 85 80 76 72 69 65 58 51 44 42 41 40 36 32 27 22 17 13 9 4 4 10 16 24 37 36 26
83 88 92 96 99 100 98 93 88 84 80 77 73 70 66 59 53 46 38 35 34 34 32 27 24 19 14 10 6 5 9 16 21 26 39 36 32 25

GFSNE_500_spd_105.txt.gz
Wind_Speed
21 23 24 24 25 27 28 26 29 28 27 29 35 38 42 39 42 44 45 49 51 52 55 53 55 54 54 54 55 56 56 59 56 60 60 64 67 68
20 23 22 24 27 28 29 31 32 33 34 34 33 36 39 41 46 50 48 50 56 55 58 58 58 59 57 58 59 60 59 57 60 61 64 68 74 76
22 23 25 28 28 29 31 34 35 39 41 41 43 43 45 51 49 52 54 57 59 60 62 61 60 61 62 62 64 64 64 63 61 62 69 74 69 77
24 25 26 29 29 31 34 35 38 39 42 45 47 50 51 55 53 63 64 63 63 66 66 66 66 67 67 67 68 70 70 70 71 73 75 73 70 66
27 28 29 31 33 35 36 38 40 41 47 49 52 51 54 59 67 66 66 68 70 70 71 70 70 70 70 71 73 72 72 73 74 76 76 77 77 76
29 32 33 35 36 39 41 42 43 46 50 51 52 64 66 65 66 69 72 72 74 76 76 73 75 76 76 77 75 74 74 74 76 77 78 79 79 79
33 35 36 38 40 42 45 48 51 52 55 58 60 63 65 68 71 76 77 78 76 76 77 79 78 78 77 77 78 79 78 77 77 77 78 79 80 81
36 37 40 43 45 46 47 45 51 56 58 62 63 68 69 72 73 75 76 78 78 78 77 77 79 79 79 79 79 81 82 84 86 87 89 90 91 92
39 40 42 43 45 47 53 48 56 60 61 65 66 69 71 74 76 77 77 78 79 80 82 81 81 82 84 85 86 88 90 92 94 95 97 97 97 98
38 41 45 48 48 51 49 61 53 64 65 69 70 73 75 76 77 78 80 81 83 84 85 85 87 87 88 91 93 96 97 99 101 103 105 106 107 107
43 45 47 50 50 49 59 60 61 67 71 73 76 78 80 81 82 83 85 86 87 89 91 94 95 94 95 96 100 103 107 109 112 114 115 116 116 115
46 45 47 52 53 54 59 63 67 70 74 78 79 82 83 83 85 87 88 89 92 94 98 100 103 105 101 104 109 113 117 118 121 122 122 121 119 116
47 49 51 53 57 62 67 71 74 77 79 81 81 83 84 86 88 90 93 97 100 102 105 108 110 114 119 117 118 122 125 125 125 124 122 118 111 104
52 55 57 61 64 68 72 75 79 80 80 79 82 83 86 88 92 95 98 102 105 108 112 117 121 126 129 130 129 126 123 120 117 111 107 102 97 93
60 64 65 70 73 75 77 80 79 77 79 81 83 86 90 93 96 99 103 107 112 118 122 126 128 128 126 122 118 111 104 98 96 93 89 85 81 77
63 66 70 76 81 81 77 75 76 78 80 84 88 91 94 98 103 106 110 115 119 123 124 122 117 111 105 101 98 93 88 82 77 74 72 68 64 61
66 72 76 76 73 70 73 74 77 82 85 88 91 95 99 104 109 114 117 120 120 116 108 101 97 92 88 86 81 77 73 68 65 61 58 54 52 49
71 65 62 63 67 71 74 77 81 85 88 92 97 101 106 110 114 117 117 112 105 97 92 86 80 74 69 67 72 68 63 57 49 44 41 35 35 38
55 58 61 66 70 74 77 82 85 89 93 98 103 107 111 113 113 109 102 94 87 82 77 72 67 62 57 53 54 58 50 38 32 27 24 21 19 27
59 62 66 70 74 78 82 85 90 94 99 102 106 108 108 106 100 92 85 79 74 68 62 57 54 52 51 47 39 37 37 23 18 13 10 8 12 19
62 66 70 74 78 81 86 90 95 99 102 104 104 103 98 91 84 79 74 69 62 55 48 45 45 44 40 35 31 27 21 13 7 2 7 14 17 19
67 71 75 78 82 86 90 94 97 99 100 98 94 89 84 78 73 70 64 56 47 40 38 39 38 33 30 25 20 15 10 7 8 14 20 25 27 31
71 75 78 82 85 89 92 94 95 94 89 85 82 78 73 69 67 60 51 41 33 32 33 31 29 23 20 16 13 12 14 20 27 37 40 37 35 38

GFSNE_500_spd_108.txt.gz
Wind_Speed
29 31 29 25 25 29 30 32 34 32 29 28 30 33 35 38 38 38 40 40 44 49 50 52 54 57 58 61 62 62 61 60 60 60 60 59 60 61
28 29 25 25 28 30 34 32 33 34 33 31 34 35 38 40 42 45 47 47 51 53 55 58 62 61 63 64 63 63 64 63 64 65 65 64 64 64
24 21 24 28 33 30 32 32 32 34 37 34 38 42 42 43 42 50 52 53 53 55 56 66 62 61 63 66 67 68 69 68 68 67 68 69 67 67
26 28 29 32 29 30 32 33 36 37 38 40 40 41 43 48 50 54 52 53 58 64 64 65 67 70 71 73 75 73 71 71 72 72 71 70 69 69
29 28 28 29 31 32 34 35 37 38 40 43 45 46 48 49 54 57 58 61 65 67 69 70 72 73 73 72 73 73 73 74 73 72 72 70 70 70
28 31 32 32 33 35 36 38 40 42 44 47 50 54 54 52 56 57 60 65 67 70 71 72 74 75 76 76 76 76 76 76 75 74 73 74 74 73
33 33 34 35 37 37 38 40 43 47 49 50 54 52 50 58 53 58 63 64 69 70 73 77 78 78 79 80 80 81 82 83 82 82 83 83 82 82
36 36 37 38 39 39 41 42 41 45 48 51 50 61 60 59 58 66 70 69 72 75 76 80 82 82 83 85 86 87 87 87 88 89 90 90 91 91
34 36 37 36 35 37 39 41 44 49 53 52 58 61 58 62 66 71 73 77 81 82 83 83 84 84 86 89 90 91 92 94 95 97 98 98 99 99
32 31 32 33 35 40 44 43 41 51 60 59 62 64 67 71 73 77 80 83 87 89 89 87 88 88 89 92 96 98 100 102 104 105 106 107 108 109
32 34 32 37 38 48 49 56 49 60 60 62 67 70 73 78 82 85 87 89 89 92 92 93 94 93 94 97 101 105 107 109 112 114 116 118 120 121
38 38 38 37 48 49 46 50 59 63 67 71 74 78 82 86 88 89 89 89 91 91 96 96 99 102 101 103 107 111 115 118 122 125 127 128 128 127
40 41 46 55 55 51 70 71 68 69 67 71 76 83 86 87 86 88 89 91 93 97 101 104 107 110 113 112 115 121 124 126 128 128 127 124 118 113
48 49 52 55 57 64 74 72 72 73 76 80 82 81 80 81 83 87 92 96 101 104 107 111 114 118 121 122 122 124 126 125 122 116 110 103 96 92
51 56 60 67 71 73 73 72 73 76 77 73 73 76 81 84 89 94 98 101 106 111 115 118 122 125 127 127 124 117 111 101 97 92 87 83 80 76
59 61 64 67 71 70 72 75 72 66 69 72 76 81 86 91 94 98 102 107 111 114 120 123 123 121 117 110 103 96 90 84 77 73 71 68 66 65
63 64 66 66 67 68 65 60 64 68 72 77 82 87 91 95 99 104 109 113 116 118 117 115 110 103 96 91 85 81 76 69 65 62 62 58 54 52
63 63 61 60 61 56 61 65 69 73 77 82 87 92 96 100 105 109 113 115 115 112 107 99 91 83 77 71 71 69 63 61 56 52 51 43 36 38
57 56 53 51 56 60 64 68 72 77 82 86 91 96 101 104 107 110 111 109 102 95 88 83 76 70 61 52 54 62 55 45 42 39 33 27 23 20
45 47 52 57 60 63 67 73 78 83 87 92 96 100 102 103 104 104 100 93 85 79 74 69 61 55 52 50 43 39 40 27 26 23 19 15 10 4
47 52 57 59 62 69 74 78 83 88 91 96 99 100 100 98 94 90 84 78 73 68 60 52 47 47 44 38 32 29 25 21 17 14 11 8 7 14
53 56 59 64 69 74 79 83 88 91 94 96 96 94 90 86 82 77 73 68 62 53 45 43 42 36 30 26 21 17 17 19 19 19 18 20 22 35
57 60 65 69 73 78 83 87 90 92 92 91 87 83 80 77 74 70 65 57 46 41 39 37 32 24 19 16 21 31 33 33 33 33 39 37 33 42

GFSNE_500_spd_111.txt.gz
Wind_Speed
43 39 34 37 37 35 34 32 33 29 28 29 28 31 35 39 39 39 40 40 41 42 45 48 49 51 52 52 54 59 67 67 63 63 65 65 66 68
34 35 40 45 42 35 32 31 30 30 29 29 30 33 36 37 39 41 43 45 44 45 45 51 53 55 59 60 63 65 68 70 70 71 72 70 70 69
37 41 37 36 36 31 29 27 30 35 38 28 34 37 36 39 42 43 45 47 47 50 53 53 55 57 59 63 68 68 68 69 71 72 73 73 72 72
32 32 29 29 25 25 28 34 35 37 37 35 35 38 39 41 43 45 48 50 52 54 60 60 60 61 63 63 67 69 70 71 74 75 74 74 73 72
21 23 25 27 30 32 34 35 35 35 36 38 42 43 43 44 47 48 51 57 56 55 57 57 58 62 67 71 72 73 77 76 77 77 77 77 78 78
26 30 33 35 36 36 35 35 35 36 39 42 44 46 48 49 49 55 51 54 58 58 58 60 66 69 71 74 78 80 81 80 82 83 83 83 82 82
34 36 38 38 38 37 36 36 38 39 40 45 43 47 48 49 51 57 58 55 61 60 64 69 72 74 77 80 82 84 84 86 88 89 88 89 90 89
36 39 40 38 37 37 39 39 39 40 38 43 50 45 54 54 56 59 60 60 64 69 70 75 80 82 83 86 87 88 91 92 92 93 95 96 95 95
32 33 35 36 37 39 38 38 39 41 42 44 51 50 57 55 63 65 67 71 74 77 80 82 85 84 85 88 91 93 94 95 97 99 101 103 104 103
34 35 36 36 36 35 39 41 43 44 52 55 49 49 57 66 68 70 74 76 79 83 84 83 84 86 89 91 95 98 101 104 106 108 110 112 114 115
31 34 36 36 37 40 42 44 44 47 52 59 58 57 72 71 73 79 80 82 83 82 82 84 87 89 92 96 100 104 108 111 114 117 120 122 124 126
31 34 38 40 40 44 47 49 53 54 60 59 60 70 73 78 77 80 84 82 79 82 86 88 92 97 97 101 106 112 115 119 121 125 128 130 131 132
41 40 48 53 44 46 55 56 56 60 62 68 72 76 77 79 82 83 78 80 82 86 91 95 99 102 107 110 112 117 122 125 128 128 129 128 122 117
45 48 44 58 52 56 63 59 61 64 66 68 77 79 76 75 72 76 80 83 88 93 98 103 107 111 115 116 118 120 124 126 125 119 110 104 99 97
47 64 65 62 54 64 66 65 65 66 75 78 73 66 66 70 74 78 84 88 95 101 105 109 111 114 118 122 122 120 120 108 101 97 92 88 86 83
57 57 62 67 59 64 64 63 67 74 70 62 62 66 68 72 78 83 89 94 99 105 109 111 115 117 118 117 113 104 98 90 84 79 76 71 68 66
68 73 58 59 62 59 61 70 65 58 58 63 65 67 74 78 84 90 95 101 105 106 110 111 113 112 105 98 90 88 81 73 68 67 65 56 52 53
66 57 55 56 59 67 63 59 60 59 63 65 68 74 79 86 91 97 102 105 106 108 108 108 102 91 82 75 74 75 65 58 54 53 50 44 37 37
58 56 61 59 55 59 55 56 60 64 67 71 75 80 86 91 97 102 104 105 104 103 100 94 85 78 68 59 56 62 50 41 38 35 33 29 24 20
55 53 56 57 49 51 56 60 64 69 73 76 80 86 91 96 100 102 102 100 96 91 84 79 72 64 58 51 43 35 35 29 28 27 25 21 18 17
53 50 46 48 53 57 60 64 68 72 76 81 86 90 94 98 100 98 95 90 85 78 73 65 57 52 41 32 29 28 29 28 27 26 23 31 41 42
41 43 47 49 53 58 62 67 71 75 80 85 88 92 95 96 94 89 84 78 72 68 59 53 47 32 20 21 26 28 33 31 29 36 37 36 37 37
43 46 49 53 57 61 66 70 74 78 83 87 89 91 92 89 83 79 73 68 63 57 47 43 31 11 13 17 18 25 29 34 32 35 33 30 33 31

GFSNE_500_spd_114.txt.gz
Wind_Speed
38 39 40 39 36 37 32 34 42 45 38 33 31 32 33 30 31 35 38 39 42 43 44 46 48 46 47 48 53 53 53 55 57 56 59 61 61 62
39 42 41 40 42 39 38 43 46 44 39 34 27 28 27 31 35 36 38 40 43 44 46 47 49 50 55 55 58 55 60 61 58 59 60 62 64 65
33 35 35 33 37 40 44 51 49 40 34 28 29 30 36 35 36 38 41 44 46 46 48 48 50 54 57 59 60 63 59 59 61 64 66 67 68 71
23 28 34 38 37 45 48 44 39 29 29 31 34 33 34 35 39 42 44 45 47 51 54 50 54 58 56 57 55 58 60 64 69 71 71 74 77 77
35 30 28 36 34 31 28 27 28 31 36 37 36 36 38 39 42 43 45 47 49 50 56 54 55 60 59 63 63 66 69 73 74 77 78 80 80 80
25 24 20 20 21 25 30 35 38 38 38 38 40 41 41 43 43 48 48 51 55 54 54 53 61 62 64 69 74 78 80 83 84 85 85 85 85 87
21 23 26 30 34 36 37 39 40 40 41 41 43 44 45 47 48 47 51 52 53 56 60 63 67 66 71 76 79 84 88 89 88 87 88 90 91 92
27 29 31 34 35 37 40 42 43 42 43 47 47 47 45 47 52 50 52 53 51 61 62 67 71 76 80 83 86 90 89 87 87 89 92 94 96 99
28 29 30 31 34 36 38 40 42 44 45 47 48 48 50 51 52 55 57 61 66 69 73 76 79 82 83 87 85 84 88 90 93 96 102 106 109 111
29 29 30 31 33 36 39 41 42 42 43 46 48 49 54 57 61 63 63 64 69 73 76 79 83 83 83 81 85 89 92 97 103 108 113 118 120 121
21 22 25 28 29 32 36 39 41 44 46 46 48 55 60 62 64 68 71 75 78 82 85 85 79 77 79 83 89 95 100 106 111 117 120 123 125 127
26 28 31 33 35 39 42 44 44 47 50 52 56 64 68 65 66 71 74 76 83 82 78 77 78 81 82 88 96 103 109 116 120 123 126 129 133 135
33 35 37 40 44 46 47 46 48 60 61 67 67 69 71 71 72 74 76 80 75 75 76 78 84 90 96 99 104 111 117 122 125 126 129 130 128 125
40 40 44 47 50 52 52 53 64 64 75 77 73 73 71 73 74 77 76 72 75 76 82 88 94 99 105 107 112 117 121 124 126 125 122 114 105 99
51 45 52 52 57 65 57 58 64 67 74 68 74 72 72 72 69 68 71 75 78 84 90 94 100 105 111 117 120 121 127 116 114 109 98 91 85 81
44 57 54 51 66 75 75 64 65 65 63 61 65 68 64 64 65 68 73 77 83 90 95 99 105 111 115 118 122 123 108 103 96 89 81 70 66 64
58 50 56 57 56 57 61 59 58 59 62 62 62 62 63 64 68 73 77 82 88 92 97 103 109 112 115 115 110 98 89 83 76 68 57 49 50 49
48 53 55 54 58 61 62 61 62 61 61 60 58 60 64 68 72 77 82 87 91 96 101 105 107 106 102 93 91 81 71 60 50 46 45 40 35 33
58 52 50 57 55 53 54 56 59 54 53 58 62 65 68 73 77 82 85 88 94 98 101 104 103 99 88 79 73 65 51 43 37 32 32 32 28 25
54 55 52 50 50 53 53 48 51 54 58 63 66 70 73 76 79 82 85 91 94 96 97 93 88 81 72 64 51 45 35 30 26 31 37 43 38 33
44 43 46 47 47 47 49 53 56 59 62 66 69 73 74 77 81 84 88 92 93 89 84 78 73 67 57 41 30 26 25 24 27 30 35 39 39 40
40 42 46 46 47 49 51 55 59 63 65 68 71 73 76 79 82 85 88 86 80 75 73 67 62 53 39 22 19 16 24 22 23 25 28 33 34 33
43 44 47 49 52 53 57 61 63 64 66 68 71 74 77 80 83 86 83 75 70 68 63 57 50 37 22 13 11 14 15 18 17 16 16 23 26 23

GFSNE_500_spd_117.txt.gz
Wind_Speed
38 37 34 34 35 37 36 32 31 32 35 34 38 39 38 37 36 34 30 28 31 34 35 37 40 42 44 47 47 49 50 50 54 57 57 57 61 58
37 36 37 38 37 37 36 36 35 37 38 39 41 39 40 37 32 31 31 35 35 36 39 41 43 45 48 51 51 54 54 54 58 62 59 56 57 59
35 33 31 32 36 34 33 34 34 37 38 40 40 40 34 32 34 36 35 37 37 41 44 46 46 48 53 54 54 53 56 53 58 61 60 63 63 64
40 37 35 29 25 29 32 35 34 35 42 42 42 32 33 35 39 38 39 40 42 44 48 49 51 50 56 59 56 55 56 60 62 61 65 70 73 75
38 36 33 29 24 24 30 29 33 31 28 28 31 34 37 37 38 40 40 42 48 48 48 51 49 57 53 56 59 58 62 62 66 71 75 77 79 81
43 42 34 29 25 21 23 25 24 25 30 36 37 38 40 41 43 43 46 50 50 52 54 52 54 56 59 64 65 70 71 74 78 83 84 83 82 86
27 27 30 21 18 19 23 25 30 35 39 41 41 42 43 46 47 49 52 54 54 55 55 62 61 62 65 70 73 77 79 80 83 85 88 87 88 87
16 19 21 21 23 29 32 34 37 39 40 41 43 45 47 50 53 54 54 54 56 59 63 65 67 70 72 75 80 82 86 89 91 89 86 86 86 89
23 25 25 28 30 31 34 35 36 37 39 42 45 47 50 52 51 52 53 56 60 64 67 71 73 75 78 81 83 89 90 84 84 86 89 92 96 101
24 26 28 30 30 31 32 33 34 36 38 42 45 47 49 51 53 55 56 58 64 68 71 75 75 76 82 84 88 86 85 86 88 94 99 104 108 112
27 28 27 26 28 29 30 32 34 36 41 44 47 50 52 54 57 62 68 75 82 80 82 81 78 76 80 83 85 87 88 92 97 104 108 112 116 121
24 26 27 27 28 30 33 36 39 43 46 49 53 56 58 61 67 75 78 80 84 80 78 74 75 74 76 77 83 89 94 98 101 107 113 118 123 129
26 29 31 34 37 37 38 40 44 48 51 56 60 61 62 66 71 73 75 76 75 73 76 74 75 75 79 83 89 94 99 103 107 113 118 123 128 131
30 33 33 35 37 41 46 48 52 53 56 65 71 72 70 67 67 66 67 70 72 73 70 72 77 82 86 89 95 97 103 110 115 118 123 125 123 115
36 36 43 48 51 46 51 55 56 60 61 57 60 64 65 66 67 68 69 71 67 69 74 78 82 88 92 96 97 104 106 111 118 119 116 110 97 82
41 44 46 58 61 55 54 58 68 62 55 59 62 63 64 64 65 65 64 65 70 74 78 82 87 90 93 97 101 105 112 113 108 98 88 80 66 59
57 47 51 51 56 53 55 56 57 61 60 61 58 59 61 62 61 62 65 69 72 77 82 85 88 92 97 98 104 105 101 94 82 67 61 54 48 42
49 47 52 51 51 61 57 55 56 61 60 56 57 61 60 59 61 65 70 74 77 79 82 84 88 93 97 99 96 90 79 68 51 41 43 40 35 34
44 50 53 51 52 51 54 56 53 51 54 55 55 57 58 61 67 70 73 76 78 81 81 85 89 92 93 88 80 70 61 40 30 30 30 35 38 36
50 52 51 51 51 50 50 49 49 52 53 55 56 58 63 67 69 71 74 76 78 82 85 87 88 86 80 71 63 55 37 23 22 23 24 29 29 29
50 51 51 47 47 46 45 48 50 52 54 57 60 64 67 69 70 71 74 77 80 83 85 84 81 74 65 57 48 33 24 18 16 14 20 23 23 23
49 45 44 43 43 46 48 49 52 56 59 62 64 66 66 68 70 73 76 79 81 82 80 74 69 60 53 45 30 20 16 17 19 21 17 20 19 19
39 39 41 44 47 50 52 55 58 59 61 63 64 65 67 70 72 75 78 79 80 75 68 63 56 50 45 34 21 17 15 14 16 19 21 21 20 21